GEFSCGP_con_probscp_102.txt.gz
Probability
0 0 0 0 0 0 0 0 0 0 0 0 0 1 2 2 1 0 0 0 1 4 9 13 17 21 25 27 27 25 23 21 20 19 16 15 12 8 6 4 3 3 3 3
0 0 0 0 0 0 0 0 0 0 0 0 0 1 2 2 1 1 1 1 1 3 9 13 16 18 20 24 24 23 21 19 17 17 15 13 11 8 6 4 4 3 3 3
0 0 0 0 0 0 0 0 0 0 0 0 0 2 3 2 1 1 2 2 2 3 7 12 13 13 16 19 21 19 18 16 14 14 12 10 8 7 5 4 4 4 3 3
0 0 0 0 0 0 0 0 0 0 0 0 0 1 3 3 1 1 2 2 2 1 4 9 10 10 12 15 18 19 19 17 15 12 10 8 6 4 4 3 4 3 3 3
0 0 0 0 0 0 0 0 0 0 0 0 0 0 1 1 1 1 1 1 1 0 2 5 7 7 7 10 16 20 20 19 15 11 8 6 4 3 3 3 3 3 3 2
0 0 0 0 0 0 0 0 0 0 0 0 0 0 0 0 0 0 0 0 0 0 2 3 4 4 5 7 12 16 19 18 14 10 6 4 3 3 3 3 3 3 2 1
0 0 0 0 0 0 0 0 0 0 0 0 0 0 0 0 0 0 0 0 0 1 3 4 4 5 7 8 10 13 16 15 12 8 4 2 2 3 3 3 3 3 2 1
0 0 0 0 0 0 0 0 0 0 0 0 0 0 0 0 0 0 0 0 0 1 3 4 5 6 8 8 9 12 14 13 10 6 2 1 2 3 3 3 3 3 2 1
0 0 0 0 0 0 0 0 0 0 0 0 0 0 0 0 0 0 0 0 0 0 1 2 4 5 6 8 9 11 13 12 9 3 1 1 2 2 3 3 3 2 2 1
0 0 0 0 0 0 0 0 0 0 0 0 0 0 0 0 0 0 0 0 0 0 0 1 2 3 5 8 10 11 12 12 8 4 1 1 2 3 4 3 3 2 1 1
0 0 0 0 0 0 0 0 0 0 0 0 0 0 0 0 1 0 0 0 0 0 0 0 1 2 5 8 11 13 14 13 9 5 4 4 5 5 5 4 3 3 2 1
0 0 0 0 0 0 0 0 0 0 0 0 0 0 0 0 0 0 0 0 0 0 0 0 1 2 4 7 11 15 15 13 9 6 7 9 10 11 10 7 5 4 3 3
1 1 0 0 0 0 0 0 0 0 0 0 0 0 0 0 0 0 0 0 0 0 0 0 1 3 5 8 12 15 14 11 8 8 11 14 18 19 16 11 7 5 5 5
3 3 2 0 0 0 0 0 0 0 0 0 0 0 0 0 0 0 0 0 0 0 1 2 4 6 8 10 14 15 14 11 10 14 19 22 24 25 20 14 10 8 7 6
6 6 3 1 0 0 0 0 0 0 0 0 0 0 0 0 0 0 0 0 0 1 2 4 7 10 13 17 19 21 21 21 22 25 27 28 30 29 24 17 13 11 9 7
9 8 4 1 0 0 0 0 0 0 0 0 0 0 0 0 0 0 0 0 1 3 5 7 10 15 21 26 28 31 34 38 38 34 31 31 32 32 27 20 15 14 11 8
9 9 6 1 0 0 0 0 0 0 0 0 0 0 0 0 1 1 2 1 2 4 6 9 13 21 28 34 37 39 43 46 46 39 31 29 30 30 27 20 16 16 14 12
8 8 5 1 0 0 0 0 0 0 0 0 0 0 0 1 1 2 3 3 3 5 9 13 17 24 32 38 41 43 45 46 44 39 33 28 26 27 25 20 16 17 17 17
5 6 3 0 0 0 0 0 0 0 0 0 0 1 1 1 1 1 2 2 3 7 11 15 17 22 30 38 41 43 44 42 39 37 33 27 23 23 23 20 17 18 20 21
2 2 1 0 0 0 0 1 0 0 1 2 2 2 2 2 2 2 1 1 3 7 10 12 14 18 25 33 39 42 43 38 32 29 27 23 19 19 20 20 20 20 21 22
0 0 0 0 0 0 0 0 0 1 2 3 3 4 3 3 4 3 3 4 5 6 9 11 14 18 21 26 33 37 37 32 25 20 18 18 16 14 14 18 20 20 19 17
1 1 1 1 0 0 0 0 0 1 2 2 2 3 5 5 4 3 5 7 8 7 7 10 14 17 17 20 25 28 27 24 18 15 14 15 14 10 8 12 17 18 16 14
3 3 3 2 1 1 0 0 0 1 2 2 1 2 4 4 3 3 5 8 8 6 6 8 12 14 13 13 17 20 20 17 15 14 14 15 14 11 9 10 12 14 13 11
4 4 3 2 1 0 0 0 0 2 3 3 3 2 2 1 1 2 4 5 5 5 5 6 9 10 9 7 9 13 15 14 14 14 15 16 17 16 13 12 10 10 10 8
3 2 1 1 0 0 0 0 0 1 2 3 3 2 0 0 0 1 2 3 3 4 5 6 8 8 6 5 6 7 8 9 10 12 14 15 15 15 13 11 8 6 6 5
1 1 0 0 1 1 1 0 0 1 2 3 3 1 0 0 0 1 2 3 3 3 5 6 8 7 6 6 6 5 4 5 7 9 11 12 12 12 9 9 7 5 3 2

GEFSCGP_con_probscp_108.txt.gz
Probability
0 0 0 0 0 0 0 0 0 0 0 0 1 5 18 27 23 20 22 25 27 26 28 29 28 31 38 44 46 45 43 41 39 35 31 28 23 16 12 9 6 5 5 4
0 0 0 0 0 0 0 0 0 0 0 0 1 6 20 27 22 16 17 21 23 23 25 27 26 29 36 41 44 44 41 37 35 31 27 25 21 15 12 9 6 4 4 4
0 0 0 0 0 0 0 0 0 0 0 0 1 7 20 26 20 12 10 13 16 18 22 25 25 27 32 37 41 42 40 35 31 28 25 21 16 13 11 9 6 4 3 3
0 0 0 0 0 0 0 0 0 0 0 0 1 6 16 23 20 13 8 9 12 14 19 23 26 27 29 33 37 40 39 35 30 26 23 18 12 10 9 8 6 4 3 3
0 0 0 0 0 0 0 0 0 0 0 0 0 3 10 17 19 15 11 10 11 11 15 21 26 26 26 27 30 34 35 32 27 23 20 15 11 10 9 9 7 4 3 3
0 0 0 0 0 0 0 0 0 0 0 0 0 1 4 7 11 13 11 10 8 6 9 17 23 24 23 22 23 25 28 28 25 21 18 15 13 14 13 10 6 4 3 3
0 0 0 0 0 0 0 0 0 0 0 1 0 0 1 1 3 7 8 7 5 3 5 11 17 20 19 19 18 18 22 25 25 22 19 17 16 16 14 8 4 3 3 3
0 0 0 0 0 0 0 0 0 0 0 0 0 0 0 0 1 2 4 5 3 2 4 7 11 15 16 17 16 18 22 24 23 22 21 20 18 14 9 6 3 3 3 3
0 0 0 0 0 1 0 0 0 0 0 0 0 0 0 0 0 1 2 2 1 3 4 5 8 11 14 15 17 20 23 23 22 21 22 22 18 12 8 6 4 3 3 2
0 0 0 0 0 0 0 0 0 0 0 0 0 0 0 0 0 0 1 0 1 2 3 4 6 10 13 15 19 22 23 23 23 22 21 20 17 12 11 9 6 4 3 3
0 0 0 0 0 0 0 0 0 0 0 0 0 0 1 1 1 0 0 0 0 2 3 3 6 11 14 17 19 21 23 24 24 24 23 22 18 14 13 13 11 9 9 8
1 1 1 0 0 0 0 0 0 0 0 0 0 1 2 2 2 1 0 0 1 3 4 5 9 13 16 17 17 20 23 24 24 26 27 27 24 21 20 19 18 20 19 17
2 2 2 2 2 1 0 0 0 0 1 0 0 2 3 3 3 2 1 1 2 5 7 9 14 17 18 19 21 23 25 25 25 27 29 29 29 30 30 27 28 30 29 26
4 3 2 3 3 2 0 0 1 1 1 0 1 3 4 4 4 4 3 3 5 8 12 17 23 27 28 30 32 32 30 29 29 30 32 32 34 38 39 39 38 39 34 28
6 4 2 2 2 1 0 0 1 1 0 0 2 5 7 7 7 8 9 9 12 14 18 25 35 42 46 47 46 42 38 39 41 42 41 41 44 47 48 49 49 47 38 30
12 9 4 1 1 0 0 0 1 1 0 1 4 10 15 17 19 19 19 20 22 24 27 34 44 54 62 61 57 52 50 52 57 58 55 54 57 57 56 56 56 53 46 40
19 19 12 4 1 0 0 0 0 1 2 4 9 16 23 29 34 34 31 31 33 34 38 44 51 60 68 69 66 63 63 65 68 68 67 67 67 65 63 61 60 59 55 52
19 23 19 7 1 0 1 2 2 3 7 12 18 22 27 35 41 40 36 34 35 39 46 51 56 61 67 72 73 72 71 71 71 70 71 72 72 71 69 67 65 64 62 59
13 18 18 9 2 1 3 5 4 6 12 21 26 27 28 31 35 35 32 30 33 37 43 49 53 56 63 71 75 73 71 70 69 69 71 72 73 74 73 71 69 67 63 60
8 12 13 7 2 1 3 5 5 9 17 25 30 33 33 34 34 32 29 30 33 34 36 42 46 52 60 67 72 72 69 67 66 66 67 68 70 71 70 69 67 64 60 56
6 9 9 5 2 1 3 6 10 17 26 29 31 38 43 45 42 36 32 32 33 33 34 38 46 54 60 65 69 70 67 62 59 57 56 57 60 61 61 61 60 57 53 50
5 6 7 7 8 9 12 15 20 27 32 31 31 36 43 44 41 37 36 35 34 34 36 39 46 51 52 55 58 59 56 50 45 42 42 43 45 46 47 48 48 46 42 40
4 5 7 12 18 22 24 25 25 26 26 25 25 27 30 31 31 33 36 34 32 32 34 35 37 37 35 37 39 39 37 34 31 30 31 31 30 30 32 33 34 33 30 28
3 4 7 13 20 25 25 23 21 19 20 20 19 20 23 25 25 25 27 27 25 25 26 27 26 24 23 24 24 23 22 22 22 22 21 21 19 19 20 20 20 19 18 17
2 2 5 8 12 15 16 16 15 17 22 22 19 19 23 23 21 19 19 20 19 18 18 19 20 19 19 19 18 17 16 17 18 18 17 15 14 13 11 10 9 8 7 8
2 1 2 5 7 9 11 11 12 17 24 24 20 20 22 21 18 16 16 18 18 16 15 16 17 17 17 17 16 16 15 14 15 16 16 14 13 11 7 5 4 2 2 3

GEFSCGP_con_probscp_114.txt.gz
Probability
0 0 0 0 0 0 0 0 0 0 0 1 4 8 12 14 14 14 17 21 26 28 27 25 25 27 29 30 32 32 32 32 32 30 28 24 17 12 8 6 4 3 3 3
0 0 0 0 0 0 0 0 0 0 1 2 5 9 11 12 12 11 13 14 18 22 24 23 23 25 28 28 29 30 30 29 28 27 26 22 18 12 7 4 4 3 3 3
0 0 0 0 0 0 0 0 0 0 1 2 5 6 7 7 7 7 6 6 8 14 18 20 21 22 24 24 23 24 24 23 23 23 22 20 16 11 6 3 3 3 3 3
0 0 0 0 0 0 0 0 0 0 0 1 2 2 2 3 3 2 2 2 4 9 13 15 18 19 19 20 19 19 18 18 19 18 18 17 14 10 7 4 3 3 3 3
0 0 0 0 0 0 0 0 0 0 0 0 0 0 1 1 1 0 1 2 3 5 7 10 12 14 17 18 17 16 14 14 14 13 13 13 11 8 6 5 3 3 3 3
0 0 0 0 0 0 0 0 0 0 0 0 0 0 1 1 1 0 1 2 2 2 3 5 7 10 14 15 13 12 10 9 10 9 9 9 7 5 4 4 2 1 2 2
0 0 0 0 0 0 0 0 0 0 0 0 0 0 0 0 0 0 0 1 2 2 2 3 4 7 11 11 9 8 7 8 9 8 6 5 5 4 3 3 1 0 1 1
0 0 0 0 0 0 0 0 0 0 0 0 0 0 0 0 0 0 0 1 2 2 2 3 4 6 8 8 7 7 7 8 10 9 6 4 3 3 3 2 1 0 0 0
0 0 0 0 0 0 0 0 0 0 0 0 0 0 0 0 0 0 0 1 2 3 3 3 4 5 6 6 7 8 8 9 10 10 7 4 3 3 3 2 1 0 0 0
0 0 0 0 0 0 0 0 0 0 0 0 0 0 0 0 0 0 0 1 2 3 3 2 2 4 4 6 8 10 10 9 8 8 7 5 3 3 2 1 0 0 0 0
0 0 0 0 0 0 0 0 0 0 0 0 0 0 0 0 0 0 0 0 1 3 3 2 2 3 4 6 9 10 9 8 7 7 6 6 4 3 2 0 0 0 0 0
0 0 0 0 0 0 0 0 0 0 0 0 0 0 0 0 0 0 0 0 1 2 3 3 3 4 6 7 9 9 7 7 6 6 6 6 5 4 2 1 0 0 0 0
0 0 0 0 0 0 0 0 0 0 0 0 0 0 1 1 0 0 0 0 1 2 4 4 5 6 7 9 10 10 9 8 7 7 7 7 7 6 4 3 2 1 1 0
0 0 0 0 0 0 0 0 0 0 0 0 0 1 2 2 1 0 1 1 1 3 5 7 7 6 8 10 12 14 13 11 10 9 9 9 9 8 6 5 5 3 2 1
0 0 0 0 0 0 0 0 0 0 0 0 0 1 2 3 2 2 3 2 2 3 6 8 7 7 8 10 12 13 14 14 14 12 10 10 10 9 7 6 6 6 3 2
0 0 0 0 0 0 0 0 0 0 0 0 0 1 3 3 3 5 6 4 3 4 5 7 7 8 9 10 10 11 13 16 16 14 12 11 11 10 9 8 9 8 4 2
0 0 0 1 0 0 0 1 1 2 2 2 2 3 4 4 5 6 6 6 6 6 5 6 7 7 7 7 8 10 15 18 18 17 15 14 13 11 11 11 11 9 6 4
0 0 0 1 1 1 1 2 3 4 4 3 4 6 8 8 8 7 7 8 8 7 7 7 6 5 4 4 4 8 15 20 21 20 18 15 13 13 12 12 11 9 8 8
0 0 1 1 1 2 2 2 3 5 5 5 7 11 14 14 12 11 9 7 7 8 8 7 5 3 3 2 3 7 13 19 22 22 20 16 14 13 12 11 10 8 8 9
0 1 2 1 1 2 2 2 3 5 5 5 10 16 19 16 13 11 8 7 7 8 7 5 3 2 2 2 4 8 12 15 17 18 18 17 15 13 10 9 9 7 5 5
1 1 2 1 0 1 1 1 3 4 5 7 11 16 17 15 12 11 9 7 7 6 4 3 3 2 1 1 3 7 10 9 9 9 10 12 12 9 7 6 6 5 3 2
0 1 1 0 0 0 1 1 2 4 6 9 11 13 15 15 12 10 7 5 4 3 3 2 2 2 1 1 3 5 6 5 3 3 4 5 5 4 3 3 2 2 1 0
0 0 0 0 0 0 1 3 5 7 9 9 9 11 14 14 10 6 3 2 1 1 1 1 1 1 1 2 3 3 4 3 2 2 2 2 2 1 1 1 0 0 0 0
0 0 0 0 0 0 2 5 8 10 10 8 7 9 10 8 5 2 1 0 0 0 1 1 0 0 1 3 3 2 2 1 1 1 1 1 1 0 0 0 0 0 0 0
0 0 0 0 0 0 1 4 7 7 7 6 5 4 4 2 2 2 1 0 0 0 1 1 0 0 1 2 2 1 0 0 0 0 0 0 0 0 0 0 0 0 0 0
0 0 0 0 0 0 1 2 3 4 4 4 2 1 1 1 2 2 1 0 0 0 1 1 0 0 1 1 1 0 0 0 0 0 0 0 0 0 0 0 0 0 0 0

GEFSCGP_con_probscp_120.txt.gz
Probability
0 0 0 0 0 0 0 0 0 0 0 0 0 0 1 1 1 5 9 12 14 15 14 13 14 14 13 16 18 18 20 21 18 12 6 5 6 5 2 0 0 1 0 0
0 0 0 0 0 0 0 0 0 0 0 0 0 0 1 2 2 4 7 8 11 13 14 14 14 13 13 15 16 16 16 16 14 10 8 6 6 5 2 0 1 1 1 1
0 0 0 0 0 0 0 0 0 0 0 0 0 0 1 2 2 2 3 3 5 9 11 11 10 10 11 13 14 14 13 12 10 9 9 9 7 5 2 0 1 2 3 2
0 0 0 0 0 0 0 0 0 0 0 0 0 0 1 2 3 2 1 0 1 3 5 5 5 6 8 11 12 12 12 11 10 10 11 11 9 6 3 1 1 2 3 3
0 0 0 0 0 0 0 0 0 0 0 0 0 0 0 1 2 2 1 1 1 1 1 2 3 4 6 8 9 11 11 10 9 10 11 11 9 7 4 2 1 1 2 2
0 0 0 0 0 0 0 0 0 0 0 0 0 0 0 0 0 0 0 1 1 1 1 1 3 4 5 7 8 9 10 9 9 10 10 9 8 6 5 2 1 2 1 1
0 0 0 0 0 0 0 0 0 0 0 0 0 0 0 0 0 0 0 0 1 1 1 1 3 4 6 7 7 8 8 9 9 10 9 8 6 5 4 3 3 2 1 0
0 0 0 0 0 0 0 0 0 0 0 0 0 0 0 0 0 0 0 0 0 0 0 0 1 3 4 6 8 9 9 8 8 9 9 8 5 4 4 3 3 2 1 0
0 0 0 0 0 0 0 0 0 0 0 0 0 0 0 0 0 0 0 0 0 0 0 0 0 1 2 4 7 9 10 9 8 7 8 7 6 4 4 3 1 1 0 0
0 0 0 0 0 0 0 0 0 0 0 0 0 0 0 0 0 0 0 0 0 0 0 0 0 0 1 2 5 9 11 10 8 7 7 7 7 7 5 3 1 0 0 0
0 0 0 0 0 0 0 0 0 0 0 0 0 0 0 0 0 0 0 0 0 0 0 0 0 0 0 1 4 8 10 9 8 7 7 7 8 7 5 2 1 0 0 0
0 0 0 0 0 0 0 0 0 0 0 0 0 0 0 0 0 0 0 0 0 0 0 0 0 0 0 1 3 6 7 8 8 8 8 8 6 4 3 1 0 0 0 0
0 0 0 0 0 0 0 0 0 0 0 0 0 0 0 0 0 0 0 0 0 0 0 0 0 0 0 0 2 4 4 6 8 9 8 7 4 3 2 1 1 0 0 0
0 0 0 0 0 0 0 0 0 0 0 0 0 0 0 0 0 0 0 0 0 0 0 0 0 0 0 1 2 3 3 5 8 9 8 6 4 3 3 3 2 1 0 0
0 0 0 0 0 0 0 0 0 0 0 0 0 0 0 0 0 0 0 0 0 0 0 0 0 0 1 1 2 2 3 4 7 8 6 5 4 4 4 4 4 3 1 0
0 0 0 0 0 0 0 0 0 0 0 0 0 0 0 0 0 0 0 0 0 0 0 0 0 1 1 1 1 1 2 4 6 6 5 4 4 5 6 6 6 5 2 1
0 0 0 0 0 0 0 0 0 0 0 0 0 0 0 0 0 0 0 0 0 1 1 1 0 1 2 2 3 2 2 4 5 5 4 4 5 6 6 6 6 6 4 1
0 0 0 0 0 0 0 0 0 1 1 0 0 0 1 2 2 2 2 2 2 3 3 2 1 1 2 3 5 5 5 5 5 4 4 4 5 6 6 6 6 5 3 1
0 0 0 0 0 0 0 0 1 2 2 1 0 1 3 4 5 6 5 5 5 5 4 3 2 1 1 2 6 7 6 4 2 2 2 3 4 5 4 4 4 4 2 1
0 0 0 0 0 0 0 0 1 2 2 1 1 3 4 4 6 8 8 7 6 5 3 1 1 0 0 1 4 6 4 2 1 1 1 2 2 2 2 2 2 2 1 0
0 0 0 0 0 0 0 0 0 1 1 0 1 3 3 4 6 8 7 5 3 2 1 0 0 0 0 0 2 3 2 1 1 2 2 2 1 0 0 1 1 0 0 0
0 0 0 0 0 0 0 0 0 0 0 0 1 2 3 5 7 6 4 2 1 0 0 0 0 0 0 0 1 1 1 0 1 1 1 1 0 0 0 0 0 0 0 0
0 0 0 0 0 0 0 0 0 0 0 0 1 2 4 5 4 3 2 0 0 0 0 0 0 0 0 0 0 0 0 0 0 0 0 0 0 0 0 0 0 0 0 0
0 0 0 0 0 0 0 0 0 0 0 1 2 3 3 3 2 1 0 0 0 0 0 0 0 0 0 0 0 0 0 0 0 0 0 0 0 0 0 0 0 0 0 0
0 0 0 0 0 0 0 0 0 0 0 2 3 2 1 1 0 0 0 0 0 0 0 0 0 0 0 0 0 0 0 0 0 0 0 0 0 0 0 0 0 0 0 0
0 0 0 0 0 0 0 0 0 0 0 1 1 1 0 0 0 0 0 0 0 0 0 0 0 0 0 0 0 0 0 0 0 0 0 0 0 0 0 0 0 0 0 0

GEFSCGP_con_probscp_126.txt.gz
Probability
0 0 0 0 0 0 0 0 0 0 0 0 0 0 1 5 10 14 14 13 14 18 22 24 27 29 30 31 30 27 25 26 31 39 44 43 35 25 21 22 22 17 14 12
0 0 0 0 0 0 0 0 0 0 0 0 0 0 1 4 8 11 11 11 13 17 23 26 28 28 26 27 27 25 25 26 30 38 43 41 35 26 22 22 20 17 14 13
0 0 0 0 0 0 0 0 0 0 0 0 0 0 2 4 5 7 7 9 11 14 18 22 24 23 20 20 24 25 27 29 29 32 34 34 31 26 23 21 19 17 16 14
0 0 0 0 0 0 0 0 0 0 0 0 0 0 1 2 4 5 6 7 9 10 12 15 18 17 13 13 18 22 25 27 28 26 25 25 25 25 24 22 21 19 17 15
0 0 0 0 0 0 0 0 0 0 0 0 0 0 0 1 2 4 6 7 8 8 9 11 12 11 9 8 11 14 16 19 25 25 22 21 21 23 24 23 21 18 16 13
0 0 0 0 0 0 0 0 0 0 0 0 0 0 0 0 0 2 5 8 10 10 9 9 9 7 5 5 6 8 9 13 19 22 20 18 17 18 21 20 18 17 15 14
0 0 0 0 0 0 0 0 0 0 0 0 0 0 0 0 0 1 3 6 10 12 11 9 7 5 4 4 4 5 9 13 17 17 15 14 14 15 18 18 17 16 15 15
0 0 0 0 0 0 0 0 0 0 0 0 0 0 0 0 0 0 1 3 8 12 12 10 6 5 6 6 5 6 9 12 15 15 14 14 15 17 18 17 15 14 13 12
0 0 0 0 0 0 0 0 0 0 0 0 0 0 0 0 0 0 1 2 6 9 10 8 5 4 7 7 7 8 10 10 12 14 15 16 18 18 18 16 14 13 12 11
0 0 0 0 0 0 0 0 0 0 0 0 0 0 0 0 0 1 2 3 4 6 6 4 3 4 6 6 8 10 9 8 8 10 13 15 17 18 17 15 15 14 13 12
0 0 0 0 0 0 0 0 0 0 0 0 0 0 0 0 0 1 2 2 2 2 2 1 2 4 5 5 6 8 8 6 5 7 11 13 16 19 17 15 15 14 13 12
0 0 0 0 0 0 0 0 0 0 0 0 0 0 0 0 0 0 1 1 1 1 1 1 3 5 6 5 5 6 6 6 5 7 11 14 17 18 17 16 16 15 14 13
0 0 0 0 0 0 0 0 0 0 0 0 0 0 0 0 0 0 0 0 1 1 2 3 5 6 7 6 5 5 5 5 6 7 9 12 15 16 16 16 16 15 15 14
0 0 0 0 0 0 0 0 0 0 0 0 0 0 0 0 0 0 0 0 1 2 4 7 9 9 8 7 7 7 7 7 7 6 7 10 13 15 16 16 16 15 15 15
2 1 0 0 0 0 0 0 0 0 0 0 0 1 2 1 1 1 2 2 1 2 6 11 13 13 12 10 9 10 11 13 13 11 11 12 14 16 18 19 19 20 19 19
4 2 1 0 0 0 0 0 0 0 0 0 0 2 5 5 3 3 5 6 5 6 10 15 17 17 17 16 13 13 16 21 23 21 19 18 18 20 22 23 25 26 25 23
4 3 1 0 0 0 0 1 1 0 0 1 2 6 9 9 8 8 10 12 11 11 15 19 19 19 20 20 17 15 18 24 27 26 25 24 23 23 23 23 26 29 29 28
6 4 1 0 0 0 1 3 4 2 1 2 5 9 10 10 10 12 15 18 17 16 18 21 20 20 21 20 17 16 18 22 24 24 23 24 25 24 22 22 25 30 34 34
7 4 1 0 0 0 1 3 5 4 3 4 5 8 8 7 8 11 16 20 21 20 21 22 22 22 22 22 21 19 19 20 20 20 19 20 21 20 20 23 27 33 37 39
3 2 0 0 0 1 1 2 3 3 4 5 6 8 9 9 10 12 14 16 18 21 23 23 23 23 24 26 26 24 22 20 20 19 18 18 18 17 19 23 29 33 35 35
1 0 0 0 0 1 2 2 2 4 7 10 11 11 12 13 15 14 11 10 12 16 18 21 23 24 25 27 26 24 21 19 18 18 17 17 18 17 17 21 26 28 27 25
1 1 0 1 1 2 2 2 3 6 9 13 15 13 11 13 14 13 10 9 10 12 14 17 21 23 24 25 24 22 20 18 16 16 17 16 16 15 14 16 20 20 18 16
2 1 1 2 2 3 2 1 2 5 8 10 10 8 7 8 10 11 11 11 13 15 15 17 19 20 20 19 20 20 19 16 14 15 15 13 11 10 11 12 14 12 10 9
1 1 1 1 1 1 1 1 2 4 6 5 4 3 5 6 6 8 9 10 12 14 16 16 17 16 14 12 12 13 14 13 13 13 10 7 6 7 9 9 8 6 5 5
0 0 0 0 0 0 0 2 3 3 4 3 2 3 4 5 4 4 5 5 6 7 9 10 10 10 8 6 6 8 10 11 12 11 7 4 3 5 6 4 3 2 2 2
0 0 0 0 0 0 0 1 2 2 2 2 2 3 4 4 3 2 2 2 1 2 3 3 4 4 3 4 5 7 10 11 12 11 8 4 2 3 4 2 1 0 1 1

GEFSCGP_con_probscp_132.txt.gz
Probability
0 0 0 0 0 0 0 0 0 0 0 0 0 1 4 9 10 11 19 34 49 62 70 72 69 64 63 66 68 65 61 58 55 51 47 45 47 47 44 38 33 28 24 21
0 0 0 0 0 0 0 0 0 0 0 0 0 1 5 9 11 11 17 30 44 57 66 70 67 63 63 65 65 62 59 55 51 47 43 41 42 43 41 36 30 24 20 19
0 0 0 0 0 0 0 0 0 0 0 0 0 2 7 12 12 11 14 24 36 47 59 66 64 61 62 62 62 59 54 49 44 40 37 34 35 36 35 33 28 23 19 18
0 0 0 0 0 0 0 0 0 0 0 0 0 3 9 14 13 10 13 22 30 39 52 60 61 60 60 59 56 52 47 42 36 33 32 29 29 31 33 33 31 26 21 19
0 0 0 0 0 0 0 0 0 0 0 0 0 2 8 12 10 7 12 21 29 37 47 55 58 56 55 52 47 43 39 34 31 29 27 26 26 28 31 33 33 28 23 21
0 0 0 0 0 0 0 0 0 0 0 0 0 1 5 6 4 4 11 19 26 34 44 52 54 52 49 43 39 37 35 31 28 26 22 21 23 24 26 28 29 27 25 22
0 0 0 0 0 0 0 0 0 0 0 0 0 1 2 2 1 3 9 16 22 28 38 46 50 47 41 35 32 33 34 32 28 22 16 14 16 19 21 23 25 24 21 18
0 0 0 0 0 0 0 0 0 0 0 0 0 0 1 1 1 3 7 13 17 22 28 38 44 40 32 26 24 28 31 30 26 19 12 9 11 16 19 21 21 20 16 12
0 0 0 0 0 0 0 0 0 0 0 0 0 0 1 1 2 3 7 10 14 16 21 30 35 31 25 21 20 23 26 27 24 19 13 10 12 16 19 20 19 18 16 13
0 0 0 0 0 0 0 0 0 0 0 0 0 0 1 1 2 4 7 9 11 15 19 25 26 25 23 21 19 21 23 25 24 20 16 15 17 20 21 22 20 19 20 20
0 0 0 0 0 0 0 0 0 0 0 0 0 0 1 2 3 5 6 7 10 14 18 21 20 20 21 20 18 18 19 20 20 18 16 16 19 22 23 24 23 23 26 29
0 0 0 0 0 0 0 0 0 0 0 0 0 0 1 3 4 6 6 6 10 14 17 17 17 17 18 18 17 15 14 14 14 13 13 14 16 19 21 23 23 24 27 30
1 0 0 0 0 0 0 0 0 0 0 0 0 1 3 5 6 5 5 5 10 16 19 19 20 22 21 20 18 15 13 12 12 11 11 13 14 16 18 21 23 24 25 26
2 1 0 0 0 0 0 0 0 0 0 0 0 2 5 7 6 4 3 5 10 19 24 25 29 33 31 26 23 20 18 17 16 15 15 16 17 18 19 21 23 23 23 23
2 2 1 0 0 0 0 0 0 0 0 0 1 3 8 11 11 8 7 8 14 22 28 33 38 42 39 31 27 25 23 22 22 22 21 21 22 22 21 20 21 22 22 21
1 2 1 0 0 0 0 0 0 0 0 1 3 7 13 19 21 20 20 21 24 27 33 41 48 51 46 36 31 30 28 26 26 26 24 23 23 22 20 19 20 23 25 26
2 3 2 1 0 0 0 1 1 0 1 4 9 15 22 28 33 35 36 38 38 36 41 51 56 56 51 42 37 35 32 28 27 26 25 23 23 22 22 22 24 28 31 32
6 6 4 1 0 0 2 3 3 3 5 11 19 26 30 33 37 42 46 49 49 48 52 57 58 56 51 47 43 39 32 28 26 27 26 25 25 25 26 28 31 33 34 34
8 8 4 0 0 1 4 6 6 6 10 18 28 34 33 32 36 44 47 49 52 55 58 59 57 55 53 49 46 40 33 27 26 28 28 27 28 28 28 30 33 35 36 36
6 5 2 0 0 2 4 5 5 7 13 23 32 34 31 30 35 40 41 42 45 50 56 57 57 58 57 53 49 44 36 29 28 29 29 29 30 30 29 30 33 35 36 35
3 2 1 0 1 3 5 6 7 11 18 24 29 30 28 27 30 31 31 33 36 44 52 55 57 60 60 57 53 47 39 31 29 30 30 30 30 29 29 30 31 32 31 30
1 1 2 3 4 7 10 11 14 20 24 25 25 25 23 22 23 23 24 26 31 39 47 50 53 56 56 55 52 47 39 33 32 32 31 30 28 26 26 27 26 25 24 22
1 2 5 6 8 10 11 13 15 19 22 22 20 19 17 16 19 22 21 22 25 30 36 41 43 45 47 48 45 39 35 33 33 33 31 29 26 23 22 23 21 18 16 14
2 3 5 6 6 6 5 7 10 13 16 16 16 15 13 14 18 21 19 18 18 20 24 29 31 31 32 33 32 30 28 28 28 28 28 25 21 19 17 15 13 10 8 7
2 3 4 4 4 2 2 3 6 11 13 13 14 14 13 13 16 16 15 14 14 15 17 20 19 18 18 18 18 19 19 19 20 21 20 17 15 13 10 7 5 4 3 3
1 2 3 5 4 3 2 3 7 11 12 12 13 13 12 12 13 12 11 11 12 13 15 15 13 11 10 10 11 13 14 15 16 16 14 12 10 9 7 4 2 2 1 1

GEFSCGP_con_probscp_138.txt.gz
Probability
0 0 0 0 0 0 0 0 0 0 0 0 1 3 6 11 19 28 37 46 50 47 44 43 45 48 48 48 48 48 46 40 31 24 21 22 21 18 14 13 12 9 7 8
0 0 0 0 0 0 0 0 0 0 0 0 1 3 6 10 15 22 29 38 44 44 43 44 47 50 51 50 49 47 43 36 28 21 17 17 17 15 11 10 10 9 6 6
0 0 0 0 0 0 0 0 0 0 0 0 1 3 5 7 11 14 17 24 32 37 41 44 47 50 51 50 48 45 39 32 23 17 14 13 12 11 8 8 8 7 5 4
0 0 0 0 0 0 0 0 0 0 0 0 0 2 3 5 7 9 9 13 23 32 38 43 44 45 47 47 44 42 36 28 21 16 14 13 10 8 7 7 7 6 4 4
0 0 0 0 0 0 0 0 0 0 0 0 0 0 1 2 4 6 6 10 18 29 37 41 40 40 42 42 40 39 34 26 20 16 14 11 8 6 6 7 6 4 4 4
0 0 0 0 0 0 0 0 0 0 0 0 0 0 0 1 3 4 5 7 14 24 31 34 34 35 36 37 36 35 30 24 19 16 14 10 6 4 5 6 6 3 3 4
0 0 0 0 0 0 0 0 0 0 0 0 0 0 0 0 1 3 5 6 11 17 21 24 26 29 29 29 31 30 26 22 18 15 12 8 5 3 3 5 6 5 3 4
0 0 0 0 0 0 0 0 0 0 0 0 0 0 0 0 0 2 4 5 8 12 14 16 21 24 22 23 26 25 21 18 16 13 10 7 5 3 2 4 5 6 5 4
0 0 0 0 0 0 0 0 0 0 0 0 0 0 0 0 0 1 3 4 7 10 11 12 16 18 17 18 20 18 15 13 13 12 10 9 7 5 3 3 3 4 4 4
0 0 0 0 0 0 0 0 0 0 0 0 0 0 0 0 0 1 2 4 6 8 9 8 9 10 11 12 12 11 12 12 10 10 10 10 10 8 6 4 3 3 4 5
0 0 0 0 0 0 0 0 0 0 0 0 0 0 0 0 0 1 2 4 5 7 7 6 5 6 7 8 8 9 12 14 12 10 10 10 10 10 9 7 4 4 4 6
0 0 0 0 0 0 0 0 0 0 0 0 0 0 1 1 0 0 1 3 4 6 6 5 5 6 8 9 9 10 13 14 12 11 10 10 10 11 11 9 7 5 6 6
0 0 0 0 0 0 0 0 0 0 0 0 0 1 3 3 2 1 1 2 3 4 5 5 6 8 11 12 11 10 11 12 11 10 10 10 10 11 11 10 9 8 7 6
0 0 0 0 0 0 0 0 0 0 0 0 1 3 5 5 4 3 3 4 5 6 6 6 7 10 12 12 9 8 9 10 10 10 10 10 11 11 11 10 9 8 6 6
0 0 0 0 0 0 0 1 1 1 1 0 2 5 8 9 8 7 7 8 10 10 9 9 10 11 11 9 7 7 8 9 10 10 11 11 12 12 11 9 8 7 5 4
0 0 0 0 0 0 0 1 2 2 1 1 3 8 12 14 14 15 15 14 14 15 16 14 13 12 11 9 8 8 8 9 10 10 12 12 11 11 10 9 8 6 5 5
0 0 0 0 0 0 0 1 3 4 4 4 6 9 13 16 19 20 19 18 17 18 19 19 17 15 12 10 9 9 10 10 11 11 12 12 10 10 10 9 9 7 6 5
0 0 0 0 0 0 0 2 6 9 11 10 10 11 12 15 18 19 17 17 17 17 18 19 19 18 15 13 11 10 10 11 11 12 12 12 11 10 10 10 9 8 6 5
0 0 0 0 0 0 1 3 7 11 14 14 13 12 12 12 14 15 14 14 14 13 13 15 19 21 19 16 13 10 9 10 12 13 12 12 11 11 10 9 8 8 6 4
0 0 0 0 0 1 3 4 5 8 11 11 9 10 9 10 11 12 12 13 12 10 10 12 17 21 20 17 15 12 10 10 10 11 10 10 11 11 9 7 7 6 4 2
0 0 0 0 0 2 4 5 4 4 5 5 5 6 8 9 10 11 11 11 10 9 9 10 13 16 16 15 15 13 10 8 7 7 6 7 7 8 7 6 5 4 2 1
0 0 0 0 0 2 4 4 2 2 2 2 3 4 7 10 10 9 8 8 9 10 10 10 11 11 10 10 10 9 7 5 4 4 4 4 4 4 5 5 4 3 2 2
0 0 0 0 1 3 3 3 3 3 3 2 1 3 5 6 6 5 6 7 9 10 10 10 8 7 5 4 4 3 3 3 3 3 3 3 3 3 3 4 3 3 2 2
0 0 0 0 2 3 3 3 3 4 3 2 1 1 2 2 1 2 4 6 6 6 6 5 3 2 1 0 0 1 1 1 2 2 2 2 2 2 2 2 2 2 1 1
0 0 0 0 1 1 1 1 2 2 2 1 0 0 0 0 0 0 1 3 3 2 1 1 0 0 0 0 0 0 0 0 1 1 1 1 1 1 1 1 1 1 0 0
0 0 0 0 0 0 0 0 0 0 1 0 1 1 1 0 0 0 0 1 1 1 0 0 0 0 0 0 0 0 0 0 0 0 0 0 0 0 0 0 0 0 0 0

GEFSCGP_con_probscp_144.txt.gz
Probability
0 0 0 0 0 0 0 0 0 0 0 0 0 0 0 2 5 8 11 14 14 14 18 24 26 26 27 27 24 18 13 13 17 18 13 7 6 6 6 5 4 2 1 0
0 0 0 0 0 0 0 0 0 0 0 0 0 0 0 1 2 5 9 12 13 15 19 24 27 29 31 31 27 21 17 17 17 16 12 8 6 6 6 5 3 1 0 0
0 0 0 0 0 0 0 0 0 0 0 0 0 0 0 0 0 2 6 9 12 15 18 23 29 31 32 32 29 24 21 19 17 14 10 8 6 6 5 4 3 1 0 0
0 0 0 0 0 0 0 0 0 0 0 0 0 0 0 0 0 1 3 5 9 13 16 21 28 29 28 28 27 23 21 18 14 11 9 7 6 5 5 4 3 1 0 0
0 0 0 0 0 0 0 0 0 0 0 0 0 0 0 0 0 0 1 3 8 12 17 21 24 25 24 23 21 18 17 15 10 7 6 6 5 5 4 3 2 1 0 0
0 0 0 0 0 0 0 0 0 0 0 0 0 0 0 0 0 0 1 3 7 11 15 19 19 19 20 19 16 14 13 12 8 4 2 3 3 3 3 2 1 0 0 0
0 0 0 0 0 0 0 0 0 0 0 0 0 0 0 0 0 0 1 3 7 9 11 14 13 12 14 16 16 15 13 11 7 3 0 1 1 1 2 1 1 0 0 0
0 0 0 0 0 0 0 0 0 0 0 0 0 0 0 0 0 0 0 2 4 5 5 7 7 7 9 13 15 16 14 11 7 3 2 2 2 1 1 1 0 0 0 0
0 0 0 0 0 0 0 0 0 0 0 0 0 0 0 0 0 0 0 0 1 2 2 2 3 3 5 8 11 13 13 10 7 4 4 5 4 3 2 2 1 1 0 1
0 0 0 0 0 0 0 0 0 0 0 0 0 0 0 0 0 0 0 0 0 0 0 0 1 2 3 4 5 8 8 7 5 4 5 6 6 4 3 3 3 2 2 2
0 0 0 0 0 0 0 0 0 0 0 0 0 0 0 0 0 0 0 0 0 0 0 0 0 2 3 2 2 3 4 3 2 2 3 5 5 5 4 3 3 3 3 3
0 0 0 0 0 0 0 0 0 0 0 0 0 0 1 1 0 0 1 1 1 0 0 0 0 1 2 2 1 1 1 1 1 0 1 2 3 4 3 3 4 4 4 4
0 0 0 0 0 0 0 0 0 0 0 0 0 1 2 2 1 1 2 2 1 0 0 0 1 1 1 1 1 0 0 1 1 1 0 0 1 1 2 3 5 5 5 5
0 0 0 0 0 0 0 0 0 0 0 0 0 1 2 2 1 2 3 3 2 1 1 1 2 2 1 1 0 0 0 1 2 2 1 0 0 0 1 3 5 5 5 6
0 0 0 0 0 0 0 0 0 0 0 0 0 0 1 1 1 2 3 3 3 3 2 1 2 3 2 1 0 0 0 0 1 1 2 1 0 1 2 3 4 4 5 5
0 0 0 0 0 0 0 0 0 0 0 0 0 0 0 1 2 3 3 2 2 3 3 2 3 3 2 1 0 0 0 0 1 1 2 2 2 3 4 4 4 4 5 5
0 0 0 0 0 0 0 0 1 2 2 1 0 0 1 3 4 5 4 3 3 4 4 4 4 4 3 2 1 1 1 1 2 2 3 3 3 4 5 5 5 5 5 5
0 0 0 0 0 0 0 0 1 3 3 2 2 2 3 3 4 5 5 5 5 6 6 5 4 4 3 2 3 3 3 3 3 3 2 2 3 4 4 4 4 4 5 5
0 0 0 0 0 0 0 0 0 2 2 2 3 4 3 2 2 3 3 4 5 6 6 4 2 1 1 2 4 5 5 4 4 3 2 2 3 3 3 3 2 2 3 4
0 0 0 0 0 0 0 0 0 0 0 1 2 3 3 2 2 1 1 1 2 3 4 3 1 0 0 2 4 5 5 5 5 4 2 2 3 3 3 2 1 1 3 3
0 0 0 0 0 0 0 0 0 0 0 0 0 1 1 2 2 0 0 0 0 1 3 3 2 1 1 2 3 4 4 3 3 3 1 1 2 3 2 1 1 2 3 3
0 0 0 0 0 0 0 0 0 0 0 0 0 0 1 1 1 0 0 0 0 1 2 3 3 3 2 3 3 3 2 1 1 1 0 0 2 2 2 1 2 3 3 3
0 0 0 0 0 0 0 0 0 0 0 0 0 0 0 0 0 0 0 0 0 0 1 2 2 2 2 2 2 1 1 0 0 1 1 1 2 3 3 3 3 3 3 3
0 0 1 1 1 1 1 0 0 1 0 0 0 0 0 0 0 0 0 0 0 0 0 1 1 1 1 1 1 0 0 0 0 1 2 2 3 3 3 2 2 2 2 2
0 0 1 1 1 1 1 0 0 0 0 0 0 0 0 0 0 0 0 0 0 0 0 0 0 0 0 0 0 0 0 0 0 0 1 2 2 2 1 1 1 1 1 1
0 0 0 1 1 1 1 0 0 0 0 0 0 0 0 0 0 0 0 0 0 0 0 0 0 0 0 0 0 0 0 0 0 0 0 1 1 1 0 0 0 0 0 0

GEFSCGP_con_probscp_150.txt.gz
Probability
0 0 0 0 0 0 0 0 0 0 0 0 0 0 0 0 0 0 1 4 11 19 26 33 35 36 40 41 38 37 36 37 37 37 37 36 30 23 20 19 16 14 12 11
0 0 0 0 0 0 0 0 0 0 0 0 0 0 0 0 0 0 1 3 10 20 28 33 35 36 41 43 40 36 34 35 38 39 38 37 34 26 20 18 17 15 14 12
0 0 0 0 0 0 0 0 0 0 0 0 0 0 0 0 0 0 1 3 9 18 25 31 36 38 40 42 40 36 33 35 39 40 37 35 34 28 20 18 20 18 16 15
0 0 0 0 0 0 0 0 0 0 0 0 0 0 0 0 0 0 1 3 7 11 17 25 33 39 40 38 37 36 36 36 38 38 35 33 29 23 18 19 22 22 18 16
0 0 0 0 0 0 0 0 0 0 0 0 0 0 0 0 1 1 1 2 5 7 11 18 26 35 37 34 33 35 37 36 35 35 34 30 24 18 15 16 19 20 17 14
0 0 0 0 0 0 0 0 0 0 0 0 0 0 0 0 1 1 2 3 4 7 11 16 21 28 32 30 29 31 32 30 27 28 27 25 20 16 14 13 13 12 11 10
0 0 0 0 0 0 0 0 0 0 0 0 0 0 0 1 1 1 3 4 6 9 14 17 20 23 25 25 22 23 25 24 21 19 18 18 17 15 13 11 9 6 5 6
0 0 0 0 0 0 0 0 0 0 0 0 0 0 0 1 1 2 4 6 8 11 14 16 16 18 19 17 16 18 21 21 18 13 11 11 13 12 10 8 6 3 2 3
0 0 0 0 0 0 0 0 0 0 0 0 0 0 1 1 2 3 4 5 6 8 10 10 11 12 12 11 12 16 19 18 15 12 9 9 9 9 6 5 4 3 1 1
0 0 0 0 0 0 0 0 0 0 0 0 0 0 1 2 3 3 3 3 4 4 5 6 7 9 8 8 10 14 17 15 13 12 10 8 8 6 4 4 4 3 2 1
0 0 0 0 0 0 0 0 0 0 0 0 0 0 1 2 3 4 3 3 3 4 6 7 7 7 6 6 9 14 16 15 14 13 11 10 7 5 4 3 4 5 3 2
0 0 0 0 0 0 0 0 0 0 0 0 0 1 2 3 4 5 5 4 4 6 9 9 7 5 3 4 8 13 16 16 16 17 15 12 9 6 4 3 4 4 4 4
0 0 0 0 0 0 0 0 0 0 0 0 0 1 3 4 6 6 5 5 6 7 8 8 7 4 2 3 7 12 14 15 16 17 16 13 11 8 6 5 5 5 5 4
0 0 0 0 0 0 0 0 0 0 0 0 1 2 3 6 8 7 5 4 6 7 7 8 9 7 6 7 9 12 13 14 14 14 14 12 11 10 9 9 8 9 8 6
0 0 0 0 0 0 0 0 0 0 0 0 1 2 4 7 10 9 7 7 8 9 9 11 13 12 11 11 13 13 13 14 14 13 12 11 11 10 10 11 10 10 10 8
0 0 0 0 0 0 0 0 0 0 0 0 1 2 5 9 11 12 12 12 13 14 14 16 18 16 13 13 14 15 15 15 15 13 11 10 11 11 11 11 10 9 9 10
0 0 0 0 0 0 1 1 1 1 1 1 2 4 7 11 13 15 16 17 17 17 17 18 20 18 15 13 14 16 18 17 15 14 12 12 12 12 11 11 10 10 11 12
1 1 1 0 0 0 1 2 2 3 3 3 4 7 10 14 16 16 17 18 17 15 14 17 20 20 18 15 14 15 18 18 18 17 16 15 15 14 12 12 12 14 15 15
2 2 1 0 0 0 1 1 3 5 5 6 7 10 12 15 14 13 16 18 16 14 12 13 16 19 19 17 15 16 17 18 19 19 18 16 15 13 13 14 16 17 16 13
3 1 1 1 1 1 2 1 1 4 7 9 10 11 11 13 14 15 17 17 14 12 11 11 13 18 20 18 16 16 16 16 16 17 18 17 15 13 14 16 18 18 14 11
4 1 0 1 2 3 4 2 3 7 11 13 13 14 15 17 20 21 19 16 13 11 9 9 12 17 19 16 14 14 14 15 16 16 17 17 16 16 15 16 16 15 13 11
4 3 2 2 3 5 6 6 8 13 16 17 18 20 22 23 22 20 18 15 12 11 8 9 12 16 16 14 12 12 14 16 17 17 17 17 17 17 17 16 15 14 12 12
5 6 5 4 4 6 8 10 13 16 17 18 21 22 21 20 17 13 11 11 10 8 7 9 11 13 13 12 12 12 14 15 16 15 14 13 12 13 13 12 11 11 10 9
7 8 8 7 5 5 7 11 15 15 14 15 17 16 14 13 12 9 7 6 5 4 5 8 10 11 11 9 8 9 11 11 10 10 9 8 7 6 6 6 5 5 5 4
8 8 9 9 7 6 8 12 14 13 12 11 11 10 10 10 9 7 5 3 1 1 3 5 7 8 7 5 4 6 7 7 6 5 4 4 3 3 2 1 1 1 1 1
8 8 9 9 9 9 12 13 14 12 11 10 9 8 8 9 7 5 3 1 0 1 2 4 5 6 5 2 2 4 6 6 4 2 1 2 3 2 1 0 0 0 0 0

GEFSCGP_con_probscp_156.txt.gz
Probability
0 0 0 0 0 0 0 0 0 0 0 0 1 1 1 2 2 6 18 37 55 65 66 68 71 72 76 83 86 81 75 71 66 60 53 49 49 50 47 47 51 49 41 37
0 0 0 0 0 0 0 0 0 0 0 0 1 2 1 1 1 5 15 33 50 61 67 70 73 75 79 84 85 81 76 71 65 61 55 50 49 44 39 41 48 48 42 41
0 0 0 0 0 0 0 0 0 0 0 0 1 1 2 3 2 3 10 24 41 56 65 71 74 76 79 84 83 80 77 71 64 61 57 53 49 41 35 37 44 45 42 41
0 0 0 0 0 0 0 0 0 0 0 0 0 1 4 6 5 3 6 16 32 48 59 64 71 75 76 77 76 76 75 71 65 59 56 53 49 42 39 40 42 42 39 36
0 0 0 0 0 0 0 0 0 0 0 0 0 0 4 9 7 4 6 14 27 41 50 59 68 73 72 68 67 69 71 70 65 56 51 48 45 41 40 40 41 41 36 31
0 0 0 0 0 0 0 0 0 0 0 0 0 0 4 8 7 6 11 19 26 35 46 57 65 70 68 63 61 63 66 67 63 56 48 44 42 38 35 35 38 37 33 29
0 0 0 0 0 0 0 0 0 0 0 0 0 1 4 7 9 12 19 24 24 30 42 52 60 64 64 62 61 61 63 62 58 53 47 42 39 34 31 32 32 31 28 26
0 0 0 0 0 0 0 0 0 0 0 0 0 2 6 10 14 18 22 23 21 26 37 46 54 59 59 59 60 60 60 56 50 47 44 41 38 34 31 31 30 26 21 19
0 0 0 0 0 0 0 0 0 0 0 0 1 4 10 15 17 18 18 17 18 24 32 41 48 51 51 52 54 56 57 53 45 40 40 39 38 35 30 29 26 22 19 17
0 0 0 0 0 0 0 0 0 0 0 0 1 5 13 18 18 17 15 13 16 23 30 36 40 41 41 41 42 45 49 47 40 36 35 35 34 31 26 22 19 18 18 19
0 0 0 0 0 0 0 0 0 0 0 0 1 5 11 16 16 15 13 12 14 21 29 34 36 37 36 32 31 34 38 37 34 32 30 30 28 25 21 18 16 16 16 15
0 0 0 0 0 0 0 0 0 0 1 0 1 4 8 10 10 12 12 12 14 20 27 33 37 37 34 30 27 29 29 27 26 27 27 27 25 23 20 18 17 15 12 10
0 0 0 0 0 0 0 0 0 0 0 0 2 5 9 8 8 11 12 14 17 21 26 31 36 36 33 32 31 29 25 23 22 23 25 25 24 22 19 18 17 14 12 10
0 0 0 0 0 0 0 0 0 0 0 1 4 9 13 12 12 15 17 19 22 26 28 31 33 33 32 34 33 29 25 23 21 21 22 22 22 20 19 18 17 15 13 11
0 0 0 0 0 0 0 0 0 0 0 2 7 13 17 18 20 22 23 26 31 33 32 32 33 32 32 33 33 29 27 25 24 22 21 21 21 21 20 18 17 16 14 12
0 0 0 0 0 0 0 0 0 0 0 2 9 18 21 23 26 29 29 32 36 37 35 33 31 31 32 34 33 30 28 27 26 24 22 22 22 21 20 18 16 16 15 13
4 3 1 0 0 0 0 0 0 1 3 5 14 25 29 27 30 36 39 40 40 40 40 36 31 29 32 33 33 32 29 27 27 25 23 23 21 18 16 15 16 19 18 16
10 8 3 0 0 0 1 1 2 3 6 10 20 31 34 32 37 44 47 47 47 47 45 40 32 29 30 32 33 33 29 27 27 27 25 23 20 16 15 15 17 19 18 16
13 13 7 1 0 1 3 4 5 7 11 17 26 33 34 36 42 47 48 49 49 49 45 40 35 33 33 34 35 33 28 27 28 28 27 25 20 18 18 18 17 17 16 14
11 13 9 3 1 4 8 9 9 15 24 32 36 35 35 38 42 44 45 47 47 45 42 39 37 38 40 40 38 35 32 30 30 30 29 26 23 21 20 18 17 17 15 14
8 10 8 4 3 7 13 14 18 31 46 52 48 44 43 43 45 44 42 44 44 41 38 37 38 40 43 42 39 37 35 33 31 31 29 27 24 22 19 17 18 17 16 14
10 11 11 10 12 17 23 25 34 49 59 59 56 53 52 51 49 45 41 39 37 34 32 32 34 37 38 38 37 35 33 31 28 29 28 25 22 18 15 15 16 15 13 12
18 18 20 23 26 29 34 38 46 53 56 55 54 54 53 51 47 42 38 33 28 24 23 25 29 31 31 31 31 29 27 25 23 23 24 22 18 13 10 10 10 9 8 8
24 24 26 30 32 32 34 37 40 42 42 45 47 48 48 46 41 37 35 31 24 20 20 22 24 24 23 23 23 22 21 20 18 17 17 16 12 8 5 4 4 4 4 4
22 24 25 27 28 27 28 29 29 31 34 38 43 45 43 40 35 31 30 27 22 20 20 21 20 18 16 16 15 16 16 16 13 12 12 9 7 4 2 1 1 1 1 1
17 21 24 24 24 25 28 27 25 28 33 38 43 45 39 35 30 25 24 22 20 19 20 20 18 14 12 11 11 11 13 12 10 9 9 7 3 1 0 0 0 0 0 0

GEFSCGP_con_probscp_162.txt.gz
Probability
0 0 0 0 0 0 0 0 0 0 0 1 2 5 12 22 33 40 43 47 47 44 46 52 52 49 48 50 51 50 48 46 40 34 29 26 22 15 11 9 9 12 14 14
0 0 0 0 0 0 0 0 0 0 0 1 2 4 8 16 25 34 42 47 48 48 50 53 51 47 48 53 54 53 50 47 41 35 31 28 23 15 10 9 8 9 12 14
0 0 0 0 0 0 0 0 0 0 0 1 2 3 4 9 17 27 39 49 52 54 56 57 54 50 52 55 55 54 53 50 44 39 36 33 26 16 11 8 7 8 12 15
0 0 0 0 0 0 0 0 0 0 0 0 1 2 2 6 15 26 38 47 53 56 57 59 57 54 53 53 53 52 52 51 47 41 38 35 27 17 10 8 7 8 11 13
0 0 0 0 0 0 0 0 0 0 0 0 0 0 0 5 14 25 35 43 49 53 54 54 53 49 48 48 49 49 49 50 46 41 37 30 21 13 8 6 7 7 7 7
0 0 0 0 0 0 0 0 0 0 0 0 0 0 1 5 13 22 31 39 45 49 51 50 46 43 42 42 45 47 47 46 43 37 32 24 15 9 6 6 6 5 4 4
0 0 0 0 0 0 0 0 0 0 0 0 0 0 2 6 12 19 27 35 40 45 50 49 45 42 42 42 44 46 46 42 37 31 25 19 12 8 5 5 4 4 3 3
0 0 0 0 0 0 0 0 0 0 0 0 0 1 5 9 12 16 22 29 34 38 44 46 44 44 43 43 45 44 42 37 32 26 21 17 12 8 5 3 3 2 1 1
0 0 0 0 0 0 0 0 0 0 0 0 0 2 6 10 12 14 19 24 28 30 35 39 41 41 39 39 41 40 35 30 26 22 17 13 11 8 5 3 2 1 1 0
0 0 0 0 0 0 0 0 0 0 0 0 0 1 5 9 12 14 17 21 24 27 33 36 35 33 30 31 33 33 28 24 20 16 12 8 7 7 5 2 1 0 0 0
0 0 0 0 0 0 0 0 0 0 0 0 0 0 3 7 11 13 17 20 23 29 33 33 29 27 26 26 27 27 25 21 17 12 8 4 4 4 4 2 1 0 0 0
0 0 0 0 0 0 0 0 0 0 0 0 0 0 3 7 12 15 19 23 26 28 28 25 24 24 25 25 24 24 24 20 15 12 8 6 5 5 5 3 1 0 0 0
0 0 0 0 0 0 0 0 0 0 0 0 0 0 3 8 14 19 25 30 32 28 23 19 18 19 21 22 21 21 20 17 13 11 11 9 9 8 8 5 2 1 0 0
0 0 0 0 0 0 0 0 0 0 0 0 0 1 5 10 17 24 31 38 39 32 23 18 16 16 16 16 15 15 15 12 9 10 11 11 10 9 7 5 3 2 1 1
0 0 0 0 0 0 0 0 0 0 0 0 1 3 7 13 21 28 34 40 41 35 28 23 20 17 14 12 11 10 10 8 7 8 8 8 8 7 6 5 4 3 3 3
0 0 0 0 0 1 1 1 1 1 1 1 4 7 11 17 24 29 33 38 39 35 30 26 22 18 14 11 10 8 6 4 5 6 6 7 8 7 6 6 6 5 5 5
0 0 0 0 0 2 2 2 2 3 4 5 9 13 19 24 26 27 29 34 37 34 27 21 17 14 12 11 10 9 6 4 4 6 6 7 8 7 6 6 6 6 6 6
0 0 0 0 0 1 3 2 2 5 8 12 17 23 28 30 30 28 29 32 33 29 21 15 13 12 11 10 10 10 8 7 6 5 6 6 7 7 6 6 6 6 5 4
0 0 0 0 0 1 2 2 3 7 13 19 26 31 32 34 35 32 28 28 27 23 18 15 14 14 12 9 9 10 9 8 7 6 6 7 7 7 7 6 6 5 4 3
0 0 1 0 0 1 3 4 5 8 14 20 27 30 30 32 33 29 25 25 25 23 20 17 15 14 10 6 6 8 8 7 7 7 7 8 9 8 7 6 5 4 3 3
0 0 0 0 0 2 6 8 7 8 13 18 20 22 24 25 25 24 23 25 25 22 18 15 13 10 6 2 2 4 5 5 5 6 6 7 8 8 7 6 4 3 3 3
0 0 0 0 0 2 7 10 8 9 15 19 18 18 21 22 21 21 23 24 22 17 13 12 11 9 4 1 0 1 3 3 3 4 4 4 5 5 5 4 3 3 3 3
0 0 0 1 1 3 7 9 9 13 19 22 21 20 22 21 19 20 20 19 16 13 10 10 9 7 4 1 0 1 2 3 3 3 2 2 2 2 2 2 2 2 3 3
0 0 1 2 4 6 8 11 15 20 24 25 24 23 22 19 17 17 17 14 13 11 9 8 7 5 3 1 0 0 1 2 2 1 1 1 1 1 1 1 1 1 1 2
0 0 1 2 4 7 11 15 20 24 26 27 25 22 18 15 13 13 12 11 9 9 8 7 6 4 3 1 0 0 1 1 1 0 0 0 0 0 0 0 0 0 0 1
0 0 0 1 2 5 10 16 20 23 24 26 25 20 15 12 10 9 9 8 8 7 7 6 6 5 2 1 0 0 0 1 0 0 0 0 0 0 0 0 0 0 0 0

GEFSCGP_con_probscp_168.txt.gz
Probability
0 0 0 0 0 0 0 0 0 0 0 0 0 0 1 2 2 1 2 6 8 7 7 10 12 12 12 14 12 8 4 3 3 3 4 4 4 5 4 2 1 1 1 1
0 0 0 0 0 0 0 0 0 0 0 0 0 0 0 1 1 0 1 5 8 9 10 12 12 11 12 15 15 13 10 8 7 8 8 7 7 6 6 4 3 3 3 3
0 0 0 0 0 0 0 0 0 0 0 0 0 0 0 0 0 0 2 5 9 13 15 15 14 14 14 17 19 19 18 16 15 16 15 13 11 10 8 8 6 5 5 5
0 0 0 0 0 0 0 0 0 0 0 0 0 0 0 0 0 1 3 7 12 17 19 19 19 20 20 19 19 19 21 23 23 23 22 21 17 13 11 9 7 5 4 4
0 0 0 0 0 0 0 0 0 0 0 0 0 0 0 0 0 1 5 9 16 21 22 22 22 22 21 20 17 17 22 27 28 26 27 26 21 16 11 8 6 4 3 2
0 0 0 0 0 0 0 0 0 0 0 0 0 0 0 0 0 2 7 11 17 23 25 23 20 17 17 19 19 21 24 27 28 28 29 27 22 16 10 6 4 3 3 2
0 0 0 0 0 0 0 0 0 0 0 0 0 0 0 0 1 3 8 12 18 22 23 21 17 13 15 21 25 26 26 26 27 28 28 25 20 15 9 6 4 3 3 3
0 0 0 0 0 0 0 0 0 0 0 0 0 0 0 0 1 4 7 11 14 17 17 17 15 13 16 21 25 27 26 26 26 24 22 20 16 11 7 4 3 3 3 3
0 0 0 0 0 0 0 0 0 0 0 0 0 0 0 0 2 4 6 7 9 12 13 14 14 14 15 17 20 22 23 23 22 19 16 14 10 7 4 2 1 2 2 2
0 0 0 0 0 0 0 0 0 0 0 0 0 0 0 1 3 4 4 4 5 8 11 13 14 15 16 17 17 18 18 17 16 14 12 10 7 5 4 1 0 1 1 1
0 0 0 0 0 0 0 0 0 0 0 0 0 0 0 1 3 4 4 3 4 5 9 12 15 17 20 21 19 17 15 13 12 11 10 8 5 5 4 2 0 0 0 0
0 0 0 0 0 0 0 0 0 0 0 0 0 0 0 0 2 3 4 4 4 5 8 12 16 18 22 23 20 15 12 11 9 8 7 5 3 2 2 1 0 0 0 0
0 0 0 0 0 0 0 0 0 0 0 0 0 0 0 0 1 2 3 4 6 7 8 11 14 16 18 17 15 11 9 8 7 6 5 4 1 0 0 0 0 0 0 0
0 0 0 0 0 0 0 0 0 0 0 0 0 0 0 0 1 3 6 8 9 10 10 11 12 13 12 11 9 8 6 5 5 4 3 2 1 0 0 0 1 1 1 0
0 0 0 0 0 0 0 0 0 0 0 0 0 0 0 1 2 6 11 13 14 13 12 11 11 10 8 7 6 5 3 2 3 2 2 1 0 0 0 1 3 4 3 2
0 0 0 0 0 0 0 0 0 1 1 0 0 0 1 3 5 10 15 18 18 15 13 11 9 7 5 4 4 3 1 0 1 1 1 1 1 1 2 3 4 5 5 5
0 0 0 0 0 0 0 0 1 2 3 1 0 1 3 4 7 11 16 19 18 14 11 10 9 6 3 3 3 2 1 0 1 1 2 2 3 4 5 5 5 6 5 5
0 0 0 0 0 0 0 1 2 3 2 1 1 2 4 6 7 9 13 15 13 10 9 10 9 6 4 3 2 1 0 1 2 2 3 3 5 6 6 6 6 5 4 4
0 0 0 0 0 0 0 1 3 4 2 1 2 4 7 9 7 6 7 9 7 5 6 8 8 5 4 3 1 0 0 1 2 2 3 3 4 6 6 6 5 4 3 3
0 0 0 0 0 0 0 1 3 4 2 1 2 5 9 10 6 4 5 7 6 4 4 6 6 5 3 1 0 0 0 0 1 2 2 3 4 5 4 4 3 3 3 3
0 0 0 0 0 0 1 2 3 4 3 2 2 5 8 7 5 5 7 9 7 5 4 5 5 4 3 1 0 0 0 0 2 3 3 4 4 4 3 3 3 2 2 1
0 0 0 0 0 0 1 2 3 3 4 4 3 4 6 7 7 9 11 11 10 7 5 4 4 4 3 1 0 0 0 0 2 4 5 4 3 3 3 3 2 1 1 0
0 0 0 1 1 1 1 2 2 2 4 5 4 3 7 10 11 13 14 13 11 8 4 3 3 3 2 1 0 0 0 0 1 2 3 2 1 2 2 2 1 0 0 0
0 0 1 2 3 3 3 3 3 3 4 5 5 6 8 11 12 14 14 12 10 7 4 2 2 3 2 1 0 0 0 0 0 1 1 0 0 1 1 1 0 0 0 0
0 0 1 2 3 3 3 3 3 3 4 5 6 8 11 11 11 11 11 9 7 5 4 2 1 2 2 1 0 0 0 0 0 0 0 0 0 0 0 0 0 0 0 0
0 0 1 2 2 2 2 2 2 4 4 3 6 9 12 12 9 9 8 6 5 4 4 2 2 2 1 0 0 0 0 0 0 0 0 0 0 0 0 0 0 0 0 0

GEFSCGP_con_probscp_174.txt.gz
Probability
0 0 0 0 0 0 0 0 0 0 0 0 0 0 0 0 0 1 5 9 12 13 15 16 17 17 19 23 24 20 15 14 13 12 12 11 10 12 13 11 9 9 7 5
0 0 0 0 0 0 0 0 0 0 0 0 0 0 0 0 0 0 3 7 11 13 17 21 22 22 23 26 27 25 23 22 19 17 17 17 17 17 18 17 14 11 9 8
0 0 0 0 0 0 0 0 0 0 0 0 0 0 0 0 0 0 1 4 8 12 19 25 30 29 27 28 29 29 29 28 25 22 23 25 26 26 25 23 19 15 13 12
0 0 0 0 0 0 0 0 0 0 0 0 0 0 0 0 0 0 0 2 5 10 17 25 31 32 28 27 28 28 29 29 27 27 29 31 30 28 28 26 21 17 14 12
0 0 0 0 0 0 0 0 0 0 0 0 0 0 0 0 0 0 1 3 7 11 18 24 29 31 27 24 25 27 30 31 31 32 35 34 29 27 27 27 23 18 14 12
0 0 0 0 0 0 0 0 0 0 0 0 0 0 0 0 0 0 2 6 10 15 21 25 29 32 29 24 24 29 35 38 37 36 35 33 29 27 27 27 24 19 14 12
0 0 0 0 0 0 0 0 0 0 0 0 0 0 0 0 0 0 2 5 9 16 22 25 29 33 33 30 30 34 39 41 39 36 33 31 28 26 25 25 22 17 12 10
0 0 0 0 0 0 0 0 0 0 0 0 0 0 0 1 1 1 2 5 9 16 22 23 25 31 34 33 33 37 40 41 37 33 31 31 28 23 21 21 17 11 8 7
0 0 0 0 0 0 0 0 0 0 0 0 0 0 0 1 2 2 3 7 11 15 19 20 20 25 30 31 32 35 38 38 33 30 31 31 28 23 20 19 14 8 6 7
0 0 0 0 0 0 0 0 0 0 0 0 0 0 0 1 1 2 3 6 10 12 16 18 20 22 26 28 30 32 34 34 33 32 31 30 28 24 21 17 13 9 8 9
0 0 0 0 0 0 0 0 0 0 0 0 0 0 0 0 0 0 2 6 9 11 16 20 22 23 24 25 26 27 29 32 34 32 29 28 27 23 20 17 13 11 9 8
0 0 0 0 0 0 0 0 0 0 0 0 0 0 0 0 0 0 2 6 9 14 20 24 25 25 25 25 25 24 25 29 31 29 27 26 26 23 20 17 14 11 9 7
0 0 0 0 0 0 0 0 0 0 0 0 0 0 0 0 1 1 3 7 11 16 23 28 29 27 27 28 26 24 24 26 27 27 27 28 28 26 22 17 13 10 9 9
0 0 0 0 0 0 0 0 0 0 0 0 0 0 1 1 2 3 5 8 13 19 25 30 32 29 30 30 27 24 23 22 22 25 27 30 30 26 20 16 13 12 11 12
0 0 0 0 0 0 0 0 0 0 0 0 0 1 2 2 3 5 7 11 16 21 25 31 33 32 31 30 27 24 21 19 19 21 23 25 23 19 15 14 14 13 12 12
0 0 0 0 0 0 0 0 0 0 0 0 0 1 3 3 4 6 8 12 17 21 25 32 35 34 32 31 28 25 21 21 20 19 18 17 13 11 10 11 12 12 12 11
0 0 0 0 0 0 0 0 0 0 0 0 0 2 4 4 6 8 10 11 15 21 27 33 37 37 34 33 32 28 24 23 23 20 17 15 11 8 7 8 8 9 9 10
0 0 0 0 0 0 0 0 0 0 0 0 2 4 5 5 7 10 12 13 16 24 32 35 38 38 36 35 34 31 27 26 24 21 19 16 13 10 8 8 8 7 7 8
0 0 0 0 0 0 0 1 1 1 1 2 5 6 6 6 7 10 14 18 22 31 37 39 40 40 38 36 33 29 28 26 23 20 17 15 13 12 10 11 9 6 6 6
0 0 0 0 0 0 0 1 2 2 4 7 10 11 12 13 14 18 22 25 30 38 43 44 44 42 40 36 30 25 24 23 21 17 14 13 13 12 12 12 9 7 6 6
1 1 0 0 0 0 1 1 3 7 13 16 17 19 22 25 29 33 33 33 37 42 45 46 46 43 40 34 27 22 19 18 18 16 14 14 14 13 13 13 11 8 6 5
4 4 3 1 2 4 6 7 11 18 25 27 26 26 29 34 37 38 37 37 40 41 41 41 42 41 36 30 24 20 18 17 16 16 15 15 15 13 13 13 11 7 4 3
13 14 12 9 8 12 15 17 21 27 32 32 28 26 29 34 34 34 35 37 38 36 34 34 35 35 30 25 21 19 16 14 14 14 13 13 11 10 10 10 8 4 2 1
21 24 25 21 17 17 20 21 23 26 29 29 24 22 25 29 29 28 31 35 35 31 27 27 28 27 24 21 17 14 12 11 12 11 9 7 5 4 5 5 4 1 0 0
22 26 29 26 22 21 21 20 20 21 22 21 20 21 24 25 23 23 25 29 29 25 20 19 20 20 19 17 14 12 9 9 10 8 5 2 1 1 1 1 1 0 0 0
19 24 27 25 24 25 23 20 18 18 17 17 18 23 26 25 21 19 22 25 25 20 15 13 15 16 15 14 13 12 10 9 9 6 2 0 0 0 0 0 0 0 0 0

GEFSCGP_con_probscp_180.txt.gz
Probability
0 0 0 0 0 0 0 0 0 0 0 0 0 0 1 1 3 8 16 26 37 43 44 44 46 47 51 58 61 56 48 48 49 47 42 37 34 35 33 33 36 35 30 26
0 0 0 0 0 0 0 0 0 0 0 0 0 1 2 2 3 8 15 26 38 45 48 49 50 51 56 62 63 59 56 57 57 53 45 39 37 37 37 40 41 37 31 27
0 0 0 0 0 0 0 0 0 0 0 0 0 2 5 6 7 8 12 22 34 43 51 55 55 58 62 66 67 66 67 67 63 58 50 45 44 43 44 47 46 38 30 26
0 0 0 0 0 0 0 0 0 0 0 0 0 2 7 11 11 9 8 15 27 38 49 58 61 63 66 67 71 74 75 73 68 61 56 53 52 51 49 49 46 38 29 25
0 0 0 0 0 0 0 0 0 0 0 0 0 1 6 11 12 8 5 12 23 35 46 58 65 66 65 66 70 76 78 76 71 65 62 59 56 53 51 48 44 37 30 26
0 0 0 0 0 0 0 0 0 0 0 0 0 1 3 8 10 7 6 12 23 34 43 56 66 69 66 65 69 75 78 77 74 70 66 62 57 55 53 49 42 36 31 29
0 0 0 0 0 0 0 0 0 0 0 0 0 1 3 6 7 7 7 12 22 33 42 53 66 70 68 68 71 76 79 77 75 72 67 62 58 55 53 48 40 35 31 30
0 0 0 0 0 0 0 0 0 0 0 0 0 2 5 7 8 8 8 12 23 32 41 52 63 67 67 69 72 76 77 74 71 68 63 59 56 51 48 44 38 34 31 28
0 0 0 0 0 0 0 0 0 0 0 0 1 2 6 9 9 8 9 14 23 31 40 48 54 58 61 65 68 69 69 67 65 61 57 54 51 46 42 39 36 33 29 26
0 0 0 0 0 0 0 0 0 0 0 0 0 2 6 11 11 10 11 16 24 32 40 45 48 52 55 58 62 62 60 59 58 55 51 51 48 43 39 37 35 32 29 27
0 0 0 0 0 0 0 0 0 0 0 0 0 1 5 11 13 14 15 19 27 35 41 46 49 51 49 50 53 55 53 52 52 50 50 51 49 44 40 38 35 33 30 29
0 0 0 0 0 0 0 0 0 0 0 0 0 2 5 9 13 17 20 25 33 40 44 48 52 53 48 44 47 50 48 46 46 48 49 51 50 46 43 41 37 35 33 31
0 0 0 0 0 0 0 0 0 0 0 0 0 2 5 8 11 17 25 33 42 48 49 52 59 59 53 48 47 47 44 41 42 46 49 49 48 47 44 41 38 35 31 29
0 0 0 0 0 0 0 0 0 0 0 0 0 1 4 9 12 18 29 38 45 51 54 59 66 67 61 55 50 46 43 42 42 45 46 46 44 42 39 37 35 33 28 25
0 0 0 0 0 0 0 0 0 0 0 0 0 1 5 10 15 22 32 40 46 51 55 63 70 70 65 60 52 45 43 44 45 44 42 40 38 34 31 30 29 28 25 22
0 0 0 0 0 0 0 0 0 0 0 0 0 3 10 18 25 33 39 44 50 53 55 62 69 70 67 61 53 45 44 45 44 41 37 35 33 29 25 24 23 23 23 21
0 1 1 0 0 0 0 0 0 0 0 1 3 8 17 28 37 44 48 51 55 57 58 62 67 68 66 60 53 48 47 46 43 38 35 33 31 28 23 20 20 21 21 19
2 3 2 0 0 0 0 0 0 1 3 7 11 15 23 32 41 47 50 55 60 62 63 64 63 63 62 58 53 51 48 46 43 38 33 32 30 26 22 18 18 21 20 18
3 4 2 0 0 0 1 1 0 2 8 15 19 22 26 32 39 46 51 57 63 66 66 64 59 57 56 53 51 48 46 42 40 37 32 29 28 24 20 17 17 19 19 17
2 2 1 0 0 1 2 3 2 5 14 22 25 27 30 36 44 51 56 61 66 67 66 63 59 57 55 52 49 46 43 39 36 33 30 27 26 23 19 16 17 18 17 15
0 0 0 0 1 3 7 8 10 18 27 32 33 36 41 48 56 62 63 66 68 67 64 63 62 60 58 54 50 47 44 39 34 31 28 27 26 21 17 16 17 18 16 14
2 3 3 5 9 16 22 24 31 42 48 46 43 45 49 55 62 64 63 62 64 63 60 62 63 62 59 55 52 49 45 41 37 33 28 27 24 19 16 17 18 17 14 12
10 12 14 18 25 35 41 47 53 57 58 53 46 43 46 53 58 59 57 55 57 57 56 58 59 58 55 52 51 49 46 42 39 34 30 27 23 17 14 15 15 14 11 9
18 22 27 33 39 45 50 54 57 57 54 49 41 37 40 48 53 53 52 51 52 52 53 54 54 53 50 47 46 45 43 39 36 31 28 25 19 12 10 10 8 7 7 6
19 24 33 42 46 47 48 49 50 50 49 45 39 36 38 43 47 47 47 48 48 48 50 51 51 49 45 42 40 40 38 35 31 27 24 19 12 6 5 5 3 2 3 3
17 23 34 45 49 48 48 48 45 45 48 47 42 39 37 39 41 42 43 45 44 45 48 50 51 47 41 37 36 37 35 32 28 25 21 14 7 4 3 2 1 0 1 0

GEFSCGP_con_probscp_186.txt.gz
Probability
0 0 0 0 0 0 0 0 0 0 0 1 4 7 9 12 16 20 22 26 31 31 30 33 36 34 29 26 28 29 27 23 21 19 15 11 7 5 5 5 6 8 9 10
0 0 0 0 0 0 0 0 0 0 0 2 5 7 8 11 14 19 22 27 33 33 32 36 39 37 33 30 31 31 30 28 25 23 20 16 10 6 6 6 6 7 9 10
0 0 0 0 0 0 0 0 0 0 0 2 4 5 6 8 12 17 22 29 36 37 37 38 39 39 38 36 35 34 33 32 30 27 26 23 16 10 8 7 8 9 11 11
0 0 0 0 0 0 0 0 0 0 0 1 1 1 3 7 11 16 24 32 38 39 39 38 37 39 42 42 40 39 37 35 33 30 29 27 21 14 10 9 9 10 11 11
0 0 0 0 0 0 0 0 0 0 0 0 0 0 2 5 10 16 23 30 35 38 36 35 36 38 40 43 43 41 39 36 34 32 29 25 21 15 11 9 10 10 10 10
0 0 0 0 0 0 0 0 0 0 0 0 0 0 1 3 8 14 19 23 31 37 36 34 36 38 39 42 41 39 37 35 34 32 28 23 19 14 10 9 9 8 8 9
0 0 0 0 0 0 0 0 0 0 0 0 0 0 0 2 6 12 18 24 31 39 39 36 37 41 44 43 39 36 35 34 32 31 28 24 19 15 11 10 10 9 10 10
0 0 0 0 0 0 0 0 0 0 0 0 0 0 1 3 6 12 20 28 34 40 42 39 39 42 44 42 39 36 34 33 31 29 26 24 21 16 13 12 11 11 11 11
0 0 0 0 0 0 0 0 0 0 0 0 0 0 1 4 7 12 20 28 35 39 42 41 40 38 37 37 36 36 35 33 31 27 25 24 23 19 16 15 13 12 11 11
0 0 0 0 0 0 0 0 0 0 0 0 0 0 1 4 8 13 17 24 33 38 40 40 38 32 29 30 33 34 36 35 31 28 27 27 25 22 19 17 15 12 10 10
0 0 0 0 0 0 0 0 0 0 0 0 0 0 1 4 9 13 15 21 32 37 37 36 33 28 26 28 32 35 37 36 33 30 29 28 26 23 20 18 15 12 10 10
0 0 0 0 0 0 0 0 0 0 0 0 0 0 3 7 11 15 18 23 33 38 36 34 31 28 27 30 33 36 37 36 34 31 28 26 23 21 18 16 13 12 10 10
0 0 0 0 0 0 0 0 0 0 0 0 0 1 5 12 18 23 26 30 37 41 39 35 33 30 30 31 33 35 36 35 33 29 24 21 19 18 16 13 11 10 9 8
0 0 0 0 0 0 0 0 0 0 0 0 0 3 9 18 26 31 33 38 42 43 40 35 32 30 29 30 32 35 35 33 29 24 21 18 16 14 12 10 9 8 6 5
0 0 0 0 0 0 0 0 0 0 0 0 1 5 11 21 33 37 38 41 44 43 40 35 30 27 28 31 34 35 33 28 22 19 17 15 12 10 9 7 6 5 4 4
0 0 0 0 0 0 0 0 0 1 1 1 2 6 12 24 36 40 40 43 43 41 39 35 30 27 29 34 36 34 29 24 18 14 12 10 8 7 6 5 4 3 3 3
0 0 0 0 0 0 0 0 2 5 7 5 5 8 14 25 35 39 41 44 43 40 39 38 35 31 32 34 34 32 28 23 17 12 8 7 6 6 6 5 4 3 3 3
0 0 0 0 0 0 0 1 4 11 14 13 12 14 18 27 35 38 42 46 46 44 44 44 40 37 35 36 34 31 27 23 17 11 9 9 9 8 8 7 6 5 3 3
0 0 0 0 0 0 0 2 7 14 19 20 20 21 25 31 37 40 43 49 51 50 50 47 44 42 41 39 36 31 26 22 17 13 13 13 12 10 9 8 6 5 3 1
0 0 0 0 0 0 3 6 10 13 18 22 25 28 31 34 38 38 42 52 56 54 51 49 46 45 44 41 36 31 26 22 19 16 16 16 14 12 10 9 7 4 2 0
0 0 0 0 0 3 9 13 13 12 16 23 29 34 36 37 38 40 46 53 54 53 52 49 46 43 41 38 34 30 26 23 20 17 16 14 11 10 10 10 8 5 2 0
0 0 0 0 1 6 15 19 16 16 20 27 33 38 42 43 44 46 50 51 48 48 49 45 41 38 36 33 31 28 26 23 19 16 14 10 8 8 9 10 8 5 2 1
1 1 3 4 6 12 18 20 20 23 28 32 36 41 45 47 47 48 48 46 44 43 43 39 36 34 32 29 26 25 24 23 19 15 12 7 5 5 6 6 6 4 3 3
3 4 8 13 17 20 21 22 23 27 34 38 39 43 46 47 47 46 44 42 41 40 38 35 33 32 30 27 25 22 21 20 17 13 8 5 3 2 2 2 3 3 2 2
5 7 13 17 21 24 24 24 25 29 36 40 42 43 45 45 44 43 40 38 38 36 33 31 31 30 29 27 25 21 18 15 12 8 4 2 1 0 0 0 1 1 1 1
6 9 14 16 17 21 22 23 25 30 35 40 42 43 45 44 41 39 37 35 34 33 30 28 28 29 29 28 24 20 16 12 8 4 2 1 0 0 0 0 0 0 0 0

GEFSCGP_con_probscp_192.txt.gz
Probability
0 0 0 0 0 0 0 0 0 0 0 0 1 3 3 3 2 3 4 5 6 7 7 6 4 4 4 6 8 8 7 7 7 6 3 1 1 1 1 2 4 6 8 8
0 0 0 0 0 0 0 0 0 0 0 0 1 2 2 2 2 4 6 7 7 9 8 6 4 5 5 7 10 10 8 9 10 10 7 4 3 2 2 2 3 4 6 7
0 0 0 0 0 0 0 0 0 0 0 0 1 1 1 1 1 4 7 9 9 9 7 4 4 5 6 8 10 10 10 12 15 15 13 10 7 6 5 3 2 2 3 5
0 0 0 0 0 0 0 0 0 0 0 0 0 0 0 0 1 4 7 8 8 7 5 2 3 4 5 7 9 9 11 15 18 18 17 15 11 9 7 4 2 2 2 2
0 0 0 0 0 0 0 0 0 0 0 0 0 0 0 0 1 3 5 4 5 7 6 3 3 5 6 6 8 10 13 17 19 19 19 17 14 11 8 5 3 2 2 1
0 0 0 0 0 0 0 0 0 0 0 0 0 0 0 0 1 3 3 3 5 8 8 6 6 9 10 10 10 13 15 18 20 21 20 18 16 14 10 6 4 4 3 2
0 0 0 0 0 0 0 0 0 0 0 0 0 0 0 0 1 2 2 2 4 8 10 9 11 15 16 13 13 15 17 19 20 21 18 16 16 16 13 9 7 7 7 6
0 0 0 0 0 0 0 0 0 0 0 0 0 0 0 0 1 2 2 2 4 8 10 11 13 17 18 16 15 15 17 18 19 18 16 14 14 14 13 10 9 9 9 9
0 0 0 0 0 0 0 0 0 0 0 0 0 0 0 0 1 2 2 3 6 9 9 10 13 16 17 17 16 15 15 16 15 15 15 14 13 12 10 10 8 8 7 6
0 0 0 0 0 0 0 0 0 0 0 0 0 0 0 1 2 1 2 5 9 10 10 12 15 16 16 18 16 14 12 11 11 14 16 15 13 10 10 9 7 5 4 2
0 0 0 0 0 0 0 0 0 0 0 0 0 0 0 1 2 1 3 7 11 11 11 15 18 19 17 16 13 10 9 8 9 13 16 15 13 10 9 7 5 3 1 1
0 0 0 0 0 0 0 0 0 0 0 0 0 0 0 0 1 3 6 10 11 11 13 16 19 19 17 14 11 9 8 8 8 11 13 14 13 10 7 5 3 2 1 1
0 0 0 0 0 0 0 0 0 0 0 0 0 1 1 2 4 8 11 13 14 14 16 17 19 19 17 14 11 10 9 9 9 9 9 10 11 9 6 3 2 1 1 0
0 0 0 0 0 0 0 0 0 0 0 0 1 2 3 4 9 13 14 16 17 18 19 18 18 17 17 15 13 11 11 11 10 9 9 9 9 8 5 3 1 0 0 0
0 0 0 0 0 0 0 0 0 0 0 1 3 5 4 5 10 14 15 17 19 19 18 16 16 15 15 15 13 13 13 12 11 10 10 10 9 8 5 3 1 0 0 0
0 0 0 0 0 0 0 0 0 0 0 2 5 7 6 5 8 12 15 19 20 19 17 15 14 15 16 17 16 14 14 13 12 11 11 10 9 7 5 2 1 1 1 1
0 0 0 0 0 0 0 0 0 0 0 2 4 6 7 6 8 11 14 18 20 20 19 17 15 15 18 20 19 17 15 14 12 12 12 11 9 7 6 4 3 2 2 2
0 0 0 0 0 1 1 1 0 0 1 1 3 6 7 8 11 12 14 17 20 22 22 18 14 14 18 20 20 19 17 14 13 12 11 11 10 8 8 8 6 4 3 2
0 0 0 0 0 1 1 1 1 1 2 2 4 7 10 12 15 16 16 19 23 26 25 19 13 15 18 20 20 20 18 14 12 10 10 10 10 9 10 9 7 4 2 1
0 0 0 0 0 1 1 2 3 3 3 5 8 11 13 13 15 18 22 25 29 32 30 23 19 20 21 20 20 20 18 15 12 11 10 10 9 9 9 7 5 3 1 0
0 0 0 0 1 2 3 4 4 3 4 8 12 15 15 13 14 21 29 32 34 36 33 28 26 24 23 21 20 20 19 16 13 12 10 8 7 7 7 4 2 1 0 0
0 0 0 0 1 2 4 5 3 3 6 10 13 16 16 15 18 26 32 34 35 36 33 29 27 24 21 20 20 20 18 15 15 13 10 7 6 5 4 3 1 1 0 0
0 0 0 1 3 5 7 7 6 5 9 11 12 14 18 22 25 28 30 32 33 31 29 26 24 22 20 19 19 18 16 15 15 14 10 7 4 3 3 3 3 2 1 1
1 1 2 5 8 10 11 11 10 10 12 14 14 15 22 28 31 29 28 30 30 28 27 25 23 22 20 20 19 16 14 14 15 13 9 5 3 2 2 2 2 2 2 2
2 2 3 7 10 10 11 13 14 15 17 18 18 18 24 32 35 31 28 27 27 27 28 27 25 23 21 19 18 15 14 14 14 12 7 3 1 1 1 1 1 1 1 1
2 2 3 6 8 7 8 12 15 19 20 19 18 20 25 34 37 33 29 25 25 27 28 27 26 24 21 18 16 15 15 14 12 9 5 1 0 0 0 0 0 0 0 0

GEFSCGP_con_probscp_198.txt.gz
Probability
0 0 0 0 0 0 0 0 0 0 0 0 0 0 1 5 7 8 9 10 8 6 7 7 5 4 8 13 16 18 20 22 22 20 19 20 17 13 10 8 6 5 4 4
0 0 0 0 0 0 0 0 0 0 0 0 0 0 1 3 6 7 9 10 7 6 8 8 6 4 7 13 16 18 21 24 24 23 21 20 18 14 11 10 8 6 5 5
0 0 0 0 0 0 0 0 0 0 0 0 0 0 0 2 4 6 7 7 6 5 6 7 5 3 5 9 14 17 20 24 26 23 21 21 19 15 13 13 11 7 6 6
0 0 0 0 0 0 0 0 0 0 0 0 0 0 0 1 3 4 5 6 5 4 4 4 2 1 3 6 11 16 20 25 25 22 21 21 19 14 13 15 11 8 8 9
0 0 0 0 0 0 0 0 0 0 0 0 0 0 0 1 2 3 5 6 5 5 5 3 0 0 2 5 9 16 22 27 28 26 24 23 19 14 13 14 12 9 9 11
0 0 0 0 0 0 0 1 1 0 0 0 0 0 1 1 1 2 5 6 5 7 8 5 3 3 5 8 13 19 25 30 34 33 29 26 22 16 15 16 14 10 9 12
0 0 0 0 0 0 0 1 1 0 0 0 0 0 1 0 0 1 4 5 6 9 11 9 8 10 13 15 19 24 29 33 36 36 32 28 24 18 16 17 15 11 10 11
0 0 0 0 0 0 0 1 1 0 0 0 0 0 0 0 0 1 3 4 6 9 12 12 13 15 18 20 22 27 31 33 34 33 31 28 23 17 15 15 15 13 11 9
0 0 0 0 0 0 0 0 0 0 0 0 0 0 0 0 0 1 3 4 6 9 12 12 13 15 19 21 22 26 30 31 28 26 26 24 21 18 15 15 16 16 14 11
0 0 0 0 0 0 0 0 0 0 0 0 0 0 0 1 1 3 5 6 6 8 11 13 14 16 18 19 20 22 25 25 22 20 20 19 17 17 17 18 20 19 16 14
0 0 0 0 0 0 0 0 0 0 0 0 0 0 1 2 3 5 7 9 9 10 13 17 18 17 17 18 20 21 22 21 19 18 17 15 14 14 16 18 19 18 16 13
0 0 0 0 0 0 0 0 0 1 0 0 0 1 2 3 4 6 9 12 13 15 18 20 19 18 17 18 21 22 20 18 17 16 15 13 13 13 16 17 17 16 13 10
0 0 0 0 0 0 0 0 0 0 0 0 0 1 2 3 5 9 13 16 18 21 22 22 21 19 18 20 21 20 18 17 16 16 16 15 14 15 17 18 18 16 13 9
0 0 0 0 0 0 0 0 0 0 0 0 0 0 1 2 7 13 17 20 23 25 26 26 24 20 19 20 21 19 18 18 19 19 21 21 18 17 18 18 18 16 13 10
0 0 0 0 0 0 0 0 0 0 0 0 0 0 2 6 11 17 21 23 26 28 29 29 26 22 22 22 22 22 22 23 25 25 26 24 21 18 18 17 15 14 14 13
0 0 0 0 0 0 0 0 0 0 0 0 0 2 6 11 15 19 23 25 27 29 30 30 29 27 26 26 26 26 27 28 29 30 27 23 20 18 17 16 15 15 16 17
0 0 0 0 0 0 0 0 0 0 1 1 1 3 9 14 16 19 23 25 26 28 31 33 33 32 31 31 31 31 31 30 30 29 25 21 19 18 18 17 17 18 18 19
0 0 0 0 0 0 0 0 0 0 1 2 3 6 11 15 17 19 21 23 26 28 31 34 36 36 36 36 35 34 32 30 28 25 22 20 20 21 20 20 19 19 19 18
0 0 0 0 0 0 1 0 0 0 1 3 5 10 15 17 18 18 19 22 26 31 35 36 38 40 40 39 38 37 35 32 28 24 23 21 21 22 22 21 20 19 19 18
0 0 0 0 0 1 1 1 1 1 3 6 11 17 21 21 20 22 25 28 33 39 43 42 42 43 43 42 42 43 41 36 30 27 25 23 20 21 21 21 20 19 17 15
0 0 0 0 0 1 4 4 5 9 15 20 23 27 28 27 28 32 36 39 43 48 50 48 46 45 44 44 45 46 43 38 33 30 27 24 20 20 20 19 18 16 13 10
1 1 1 1 2 5 10 13 16 23 31 35 36 36 36 37 38 40 42 45 49 52 52 50 46 44 42 40 42 43 40 36 32 29 26 22 19 18 17 16 15 12 9 7
6 7 6 5 6 10 15 20 24 30 36 40 41 42 42 43 42 41 43 48 52 53 52 49 45 41 37 35 36 37 36 34 31 27 23 19 16 14 13 13 12 9 7 5
13 15 15 13 12 13 17 22 26 29 33 36 38 39 41 42 40 41 45 50 52 53 53 51 47 40 37 35 34 33 34 33 30 26 21 18 14 12 11 10 9 8 6 5
14 19 22 20 17 17 21 26 29 31 33 33 34 35 36 37 37 41 47 49 48 50 52 51 47 41 39 37 34 32 32 32 29 25 21 17 14 11 9 8 7 6 5 4
12 19 24 23 21 22 27 33 34 35 34 33 34 35 33 33 36 41 47 47 45 47 50 49 45 40 38 37 34 32 32 31 28 23 20 17 13 10 8 7 5 3 2 2

GEFSCGP_con_probscp_204.txt.gz
Probability
0 0 0 0 0 0 0 0 0 0 0 0 1 2 4 5 6 11 20 32 38 37 34 32 27 23 27 38 47 47 40 35 35 32 28 24 22 20 18 17 19 19 16 14
0 0 0 0 0 0 0 0 0 0 0 0 1 3 4 5 7 10 19 30 38 40 40 38 34 29 33 44 50 49 45 42 40 35 29 25 23 20 18 17 17 17 16 14
0 0 0 0 0 0 0 0 0 0 0 0 1 3 6 6 7 10 15 23 32 40 44 45 41 37 41 49 53 51 51 51 47 39 32 29 28 24 20 19 18 16 15 14
0 0 0 0 0 0 0 0 0 0 0 0 1 3 6 7 7 10 13 17 25 35 42 45 45 42 42 45 49 54 57 57 53 45 38 36 36 31 24 22 22 19 16 14
0 0 0 0 0 0 0 0 0 0 0 0 0 2 5 6 7 10 13 16 22 30 38 43 45 44 40 38 43 55 62 60 54 48 43 41 39 33 26 24 25 24 20 16
0 0 0 0 0 0 0 0 0 0 1 0 0 1 4 6 7 10 13 15 20 26 33 39 43 44 40 36 42 55 64 63 53 46 43 42 39 34 30 27 28 28 24 21
0 0 0 0 0 0 0 0 0 0 0 0 0 1 4 6 8 11 13 14 17 23 30 35 40 44 43 42 47 55 62 62 54 45 42 42 38 35 33 30 30 30 27 24
0 0 0 0 0 0 0 0 0 0 0 0 0 1 4 7 10 13 15 15 18 23 29 34 39 44 47 49 52 56 58 58 53 46 42 40 37 35 35 33 30 29 25 20
0 0 0 0 0 0 0 0 0 0 0 0 1 2 6 9 13 15 16 16 21 26 29 33 38 42 47 52 54 54 53 53 49 45 41 38 35 32 32 31 27 24 21 17
0 0 0 0 0 0 0 0 0 0 0 0 1 3 8 12 15 17 18 20 24 29 32 35 37 39 45 50 50 49 48 49 47 43 39 36 32 28 27 26 22 20 19 18
0 0 0 0 0 0 0 0 0 0 0 0 1 3 8 13 17 20 23 26 28 32 37 38 37 39 45 48 45 44 45 46 45 42 38 35 30 26 24 22 20 19 20 20
0 0 0 0 0 0 0 0 0 0 1 0 1 3 8 13 17 23 29 30 31 34 38 39 39 41 45 45 41 41 42 44 43 41 39 36 32 28 26 24 22 21 22 22
0 0 0 0 0 0 0 0 0 0 0 0 1 5 9 13 18 26 33 35 35 36 38 39 41 44 45 44 42 41 42 44 43 40 38 37 35 33 31 28 25 24 24 23
0 0 0 0 0 0 0 0 0 0 0 0 1 4 9 13 20 28 35 38 38 38 39 41 44 47 47 46 44 42 42 42 40 38 37 36 36 35 33 29 25 24 23 22
0 0 0 0 0 0 0 0 0 0 0 0 1 5 11 18 23 29 36 38 38 38 40 43 48 50 51 50 48 45 43 41 39 37 37 37 37 35 32 29 26 24 21 20
1 1 1 0 0 0 0 0 0 0 0 0 2 7 17 25 29 32 36 39 40 40 42 46 51 53 53 53 52 51 48 47 45 41 39 39 38 35 31 28 27 25 22 20
4 5 2 0 0 0 0 0 0 0 0 0 3 10 19 28 34 37 40 43 45 44 44 47 51 53 54 54 54 54 54 53 52 47 43 40 38 35 31 28 28 27 24 21
9 9 4 0 0 0 0 0 0 0 1 2 7 14 21 29 36 41 45 49 49 47 48 51 51 52 54 54 54 56 56 55 53 50 45 40 37 35 33 30 29 27 23 20
9 11 5 0 0 0 0 0 0 1 3 7 14 21 24 29 36 42 50 57 57 55 55 55 53 52 53 54 56 58 58 55 52 49 45 39 36 34 32 30 28 26 21 19
6 8 4 0 0 1 2 2 1 2 8 16 24 29 32 34 39 47 57 65 68 65 61 59 56 55 56 56 59 60 59 56 52 48 44 39 36 32 29 27 27 24 20 18
3 4 3 1 1 4 6 6 10 17 27 34 38 42 45 47 51 57 64 70 72 69 64 61 60 61 61 59 60 61 59 56 52 48 43 39 34 29 26 25 25 23 19 17
3 4 5 5 8 14 18 21 30 41 46 47 49 52 55 57 59 62 64 68 70 66 62 60 61 62 62 61 60 58 55 52 49 47 42 36 31 25 22 22 23 23 20 17
8 9 13 17 21 27 33 39 44 47 47 46 48 52 55 57 58 59 60 62 64 63 60 59 60 60 60 60 57 53 50 47 45 42 38 32 28 24 20 19 21 21 19 16
14 16 21 29 33 36 42 45 43 39 40 42 44 47 50 54 57 58 60 63 64 63 60 59 59 59 59 57 53 48 45 43 40 37 32 28 25 24 22 19 18 18 17 15
20 21 27 35 39 41 44 44 40 37 39 44 47 47 49 55 60 60 63 66 65 63 61 60 59 58 57 55 51 46 43 41 38 34 29 24 22 23 22 18 15 15 13 10
23 25 31 39 45 46 45 44 41 39 41 47 52 52 51 57 62 61 62 65 64 62 62 61 57 54 54 53 50 45 42 41 38 34 28 22 21 21 18 15 13 10 7 5

GEFSCGP_con_probscp_210.txt.gz
Probability
0 0 0 0 0 0 0 0 0 0 1 3 4 4 6 8 12 13 15 14 12 12 15 16 15 14 11 7 6 5 6 8 9 8 7 6 4 2 1 0 1 4 5 5
0 0 0 0 0 0 0 0 0 1 2 3 4 5 5 7 10 12 15 15 13 12 14 16 17 17 15 11 9 8 8 8 9 8 8 7 5 3 2 1 1 3 4 5
0 0 0 0 0 0 0 0 0 1 2 3 4 5 5 6 8 11 14 15 13 10 12 15 18 19 18 17 15 14 12 11 11 11 11 11 9 6 3 2 2 3 4 5
0 0 0 0 0 0 0 0 0 1 2 3 4 4 4 6 7 8 11 13 11 9 10 14 18 19 19 20 21 19 17 17 16 15 15 14 12 9 6 4 4 3 4 4
0 0 0 0 0 0 0 0 1 1 1 1 2 3 4 6 6 7 9 12 11 10 9 12 17 20 21 24 24 21 21 20 19 16 15 16 13 10 8 6 5 3 3 3
0 0 0 0 0 0 0 0 0 0 0 0 1 2 3 4 5 6 8 12 13 12 11 13 17 21 23 26 26 25 24 23 20 18 16 15 13 10 8 7 5 3 1 1
0 0 0 0 0 0 0 0 0 0 0 0 0 1 1 2 4 6 9 13 15 16 16 16 18 21 24 28 29 29 29 27 24 19 17 16 15 13 11 9 6 3 1 0
0 0 0 0 0 0 0 0 0 0 0 0 0 0 1 2 4 7 12 15 17 20 21 21 21 23 26 29 31 33 32 28 24 20 20 20 18 17 16 12 8 6 3 1
0 0 0 0 0 0 0 0 0 0 0 0 0 1 3 5 7 11 15 18 21 24 25 25 24 25 26 28 30 32 31 25 21 22 24 24 23 22 19 14 10 8 4 1
0 0 0 0 0 0 0 0 0 0 0 0 1 2 4 8 12 15 18 21 25 28 28 27 26 25 25 27 29 30 26 22 21 23 25 25 24 22 18 13 9 7 5 2
0 0 0 0 0 0 0 0 0 0 0 0 1 2 4 9 13 16 20 23 25 28 29 28 27 26 24 25 28 27 24 23 23 23 23 22 21 19 15 11 9 7 6 5
0 0 0 0 0 0 0 0 0 0 0 0 0 1 3 8 12 16 22 24 23 26 28 27 28 28 26 24 26 26 26 26 25 23 21 19 17 14 11 10 9 8 7 6
0 0 0 0 0 0 0 0 0 0 0 0 0 0 3 8 13 19 25 27 25 25 25 26 27 29 27 24 23 24 25 26 25 21 19 17 15 12 11 9 8 7 7 7
0 0 0 0 0 0 0 0 0 0 0 0 0 1 4 10 16 22 26 28 28 25 23 25 27 27 26 23 21 21 23 25 25 22 19 17 16 14 12 10 8 7 7 7
0 0 0 0 0 0 0 0 0 0 0 0 1 2 5 11 20 26 28 29 29 25 23 25 27 26 26 25 23 23 24 26 26 25 23 19 17 16 14 11 9 7 6 6
0 0 0 0 0 0 0 0 0 0 1 1 2 3 6 13 22 29 32 33 30 27 26 27 29 30 31 30 29 29 29 30 29 28 26 22 19 16 14 12 10 9 6 5
0 0 0 0 0 0 0 0 1 2 4 4 4 5 9 17 26 32 35 36 33 30 29 31 34 37 38 37 36 36 36 35 32 27 24 22 19 17 14 13 11 9 7 6
0 0 0 0 0 0 0 1 3 6 8 9 9 11 16 23 31 36 37 37 35 35 35 37 40 43 44 42 41 41 40 38 33 27 23 22 21 19 16 14 12 9 7 7
0 0 0 0 0 0 1 4 7 11 14 16 19 20 24 31 37 39 38 38 39 42 44 45 45 48 48 48 46 43 40 37 31 27 25 25 23 20 17 14 11 9 7 6
0 0 0 0 0 1 4 7 10 14 19 22 25 28 30 35 37 37 39 41 43 48 51 50 47 47 48 48 46 42 38 33 27 24 24 24 21 18 16 13 11 8 7 6
0 0 0 0 1 3 7 10 11 13 19 24 28 31 31 33 35 37 40 43 45 49 51 49 45 43 43 43 42 38 33 29 24 21 21 21 18 16 14 13 10 8 7 6
0 0 0 1 2 6 10 12 11 13 20 26 29 31 31 32 35 37 40 43 45 47 47 44 41 38 38 39 38 34 29 25 22 21 19 18 16 15 14 12 9 7 6 6
2 3 4 7 11 14 16 17 16 18 25 30 30 31 33 34 34 35 37 40 42 43 43 41 38 36 36 36 35 32 28 25 22 19 17 16 16 14 13 11 9 7 6 6
8 9 12 19 25 26 26 26 25 27 32 34 33 32 34 35 33 33 35 38 39 39 38 37 36 35 33 33 34 31 28 26 23 18 14 14 16 15 13 10 8 7 6 6
12 14 19 26 31 32 33 33 32 33 36 37 37 35 35 34 33 33 35 36 37 36 35 35 35 34 32 33 33 30 27 25 23 18 15 15 16 15 12 9 7 5 5 5
13 15 22 27 29 32 35 35 34 35 37 39 39 37 34 33 34 35 35 36 37 37 35 35 36 34 33 33 32 29 25 22 21 18 16 16 16 14 11 8 5 3 3 3

GEFSCGP_con_probscp_216.txt.gz
Probability
0 0 0 0 0 0 0 0 0 1 3 3 3 3 3 2 2 3 3 3 3 2 2 2 1 1 2 1 0 1 3 4 4 3 1 0 0 0 0 1 1 2 2 2
0 0 0 0 0 0 0 0 0 2 3 3 3 3 3 2 3 4 4 3 3 2 2 2 1 1 2 1 1 2 5 6 5 4 2 0 0 0 0 1 2 1 1 1
0 0 0 0 0 0 0 0 0 1 3 3 3 2 2 3 3 3 3 3 2 2 3 2 1 1 2 2 1 3 5 6 5 4 2 1 0 0 0 1 1 1 1 0
0 0 0 0 0 0 0 0 0 1 2 2 1 1 1 3 3 3 3 3 2 2 2 2 1 1 2 3 2 2 3 4 4 4 3 1 0 0 0 0 1 1 1 0
0 0 0 0 0 0 0 0 0 0 1 1 1 0 1 2 2 2 3 3 3 2 2 2 2 2 4 6 5 3 3 4 3 3 3 2 1 0 0 0 1 1 0 0
0 0 0 0 0 0 0 0 0 0 0 0 0 0 0 1 1 2 3 3 3 2 1 2 3 4 6 8 8 4 4 5 4 4 4 3 3 1 0 1 1 0 0 0
0 0 0 0 0 0 1 0 0 0 0 0 0 0 0 0 1 2 3 3 3 2 1 2 3 4 5 8 8 6 4 5 5 4 4 5 4 3 2 2 1 0 0 0
0 0 0 0 0 0 0 0 0 0 0 0 0 0 1 2 2 3 3 3 3 2 1 3 4 3 4 6 8 7 6 5 4 3 3 4 4 3 3 3 2 1 0 0
0 0 0 0 0 0 0 0 0 0 0 0 0 0 2 3 3 3 4 3 3 3 2 3 4 5 4 6 8 9 8 7 5 4 4 5 5 4 4 4 4 3 1 1
0 0 0 0 0 0 0 0 0 0 0 0 0 0 1 3 3 4 5 4 3 3 2 2 4 5 4 5 8 8 8 9 8 7 7 8 7 7 7 7 7 6 4 3
0 0 0 0 0 0 0 0 0 0 0 0 0 0 1 2 3 4 5 3 2 2 2 2 3 4 4 5 6 7 7 8 8 9 9 9 8 8 9 9 9 7 6 6
0 0 0 0 0 0 0 0 0 0 0 0 0 0 1 2 2 4 4 3 3 3 4 4 3 2 3 5 4 5 7 7 9 10 10 9 9 9 10 10 9 7 6 6
0 0 0 0 0 0 0 0 0 0 0 0 0 0 0 1 2 3 4 6 6 6 6 5 3 1 2 4 4 5 7 9 10 11 11 10 9 9 10 8 7 5 4 4
0 0 0 0 0 0 0 0 0 0 0 0 0 0 0 2 3 4 7 11 11 9 6 5 3 1 1 3 5 7 8 11 13 13 11 10 8 8 7 5 4 4 3 3
0 0 0 0 0 0 0 0 0 0 0 0 0 0 1 2 4 6 11 15 14 11 7 5 5 5 4 7 10 11 11 13 15 13 11 9 6 5 4 3 3 4 3 3
0 0 0 0 0 0 0 0 0 0 0 0 0 0 1 4 6 9 14 17 16 14 11 10 9 9 10 12 14 14 15 15 15 13 12 9 6 5 5 4 4 5 4 4
0 0 0 0 0 0 0 0 0 0 0 0 0 0 2 6 9 12 16 19 19 17 15 14 14 13 14 16 18 18 18 18 16 15 13 11 10 9 7 6 6 6 6 5
0 0 0 0 0 0 0 0 0 0 1 2 2 2 5 8 12 14 17 20 21 20 19 18 17 17 17 20 23 22 21 21 19 16 14 13 13 12 10 8 8 8 7 6
0 0 0 0 0 0 0 0 0 1 3 4 5 6 9 13 15 16 17 19 21 21 21 21 21 19 19 21 25 26 25 24 21 18 16 14 13 12 10 8 8 9 8 7
0 0 0 0 0 0 0 0 1 2 3 4 6 10 14 15 15 15 17 20 21 21 21 22 22 19 18 21 25 28 27 25 22 20 18 15 12 10 8 8 8 8 7 7
0 0 0 0 0 1 2 2 1 1 2 4 8 14 16 14 12 13 17 21 23 22 22 23 22 20 21 24 27 29 27 24 22 21 19 15 11 8 7 8 9 8 7 6
0 0 0 0 1 2 4 4 2 0 2 6 11 17 19 16 14 15 17 22 26 27 27 26 25 24 25 27 29 30 27 24 22 20 18 14 10 8 8 9 10 9 7 7
2 2 2 3 4 5 7 6 3 2 4 8 13 17 21 20 18 17 18 22 28 32 30 28 28 27 26 27 29 29 27 25 22 19 16 12 11 10 10 10 11 10 8 7
5 4 5 8 9 10 10 8 7 6 6 9 13 18 20 19 17 16 17 20 26 29 29 27 28 28 27 26 27 27 26 24 22 18 15 13 12 12 11 10 10 10 9 8
5 4 6 10 11 11 11 12 13 11 10 11 15 19 20 18 16 16 16 19 22 25 26 26 26 27 27 27 25 23 22 22 21 17 14 13 12 12 10 9 8 8 8 7
3 3 4 8 9 10 11 13 16 15 14 16 19 21 21 19 18 19 18 18 21 24 26 25 25 26 27 27 25 21 20 20 19 17 14 12 11 10 9 8 7 5 5 5

GEFSCGP_con_probscp_222.txt.gz
Probability
0 0 0 0 0 0 0 0 0 1 0 0 0 0 1 0 0 0 0 1 1 0 1 2 2 1 1 4 10 12 10 8 6 5 5 5 3 1 1 2 4 5 6 6
0 0 0 0 0 0 0 0 0 1 0 0 0 1 1 1 1 1 1 1 2 2 1 1 1 1 2 5 8 10 9 7 6 6 6 6 5 3 1 1 2 4 5 5
0 0 0 0 0 0 0 0 0 0 0 0 0 1 1 2 2 2 1 2 3 4 3 1 0 1 3 5 6 8 9 9 9 8 6 6 7 5 2 1 1 3 3 2
0 0 0 0 0 0 0 0 0 0 0 0 0 0 1 2 3 3 3 3 4 6 6 3 1 1 3 5 6 8 11 14 15 12 9 8 8 5 2 2 3 4 3 2
0 0 0 0 0 0 0 0 0 0 0 0 0 0 1 1 2 2 4 4 5 7 7 5 2 2 3 5 8 10 14 18 18 15 14 13 9 5 3 3 4 4 3 2
0 0 0 0 0 1 2 2 2 2 1 0 0 0 0 0 0 2 4 6 6 7 7 6 4 4 5 7 10 13 17 20 19 16 16 15 10 6 5 4 4 3 2 1
0 0 0 0 0 1 2 4 5 4 2 1 0 0 0 0 0 1 4 6 6 7 7 6 5 5 7 10 13 17 21 22 19 16 14 12 10 7 6 6 5 3 2 1
0 0 0 0 0 1 1 2 4 4 2 1 0 0 0 0 0 1 4 6 7 8 8 7 6 6 8 11 14 17 20 21 19 15 12 12 11 10 10 9 7 5 3 2
0 0 0 0 0 0 0 1 2 2 1 0 0 0 0 0 1 2 4 6 7 9 11 11 9 7 9 12 14 15 16 18 17 14 13 14 15 15 14 11 9 6 5 5
0 0 0 0 0 0 0 1 1 2 1 1 0 0 0 1 2 3 4 6 8 10 12 13 11 10 11 12 13 13 15 15 14 12 12 13 15 16 14 11 9 8 8 9
0 0 0 0 0 0 0 1 3 3 3 1 0 0 0 1 3 4 6 8 9 10 10 10 11 11 11 10 10 12 14 14 12 10 10 11 13 14 12 10 10 11 11 11
0 0 0 0 0 0 0 1 3 4 3 1 0 0 0 1 3 5 7 10 10 9 8 7 7 8 8 8 7 10 12 12 10 9 10 12 14 15 14 12 12 12 12 11
0 0 0 0 0 0 0 1 1 1 1 0 0 0 1 2 4 7 10 13 14 12 9 7 6 7 8 9 9 10 12 12 11 11 12 15 17 17 16 15 14 13 12 10
0 0 0 0 0 0 0 0 0 0 0 0 0 0 1 3 7 12 16 19 21 18 13 10 9 9 11 14 16 16 17 17 15 16 18 20 20 19 17 16 15 14 13 10
0 0 0 0 0 0 0 0 0 0 0 0 0 0 1 3 9 16 21 25 28 24 18 16 16 17 19 23 25 25 25 25 23 23 23 23 23 20 17 16 16 15 13 11
0 0 0 0 0 0 0 0 0 0 0 0 0 1 2 5 12 21 25 28 30 27 23 24 26 27 30 34 34 31 31 31 31 28 27 25 23 20 18 16 15 14 13 12
0 0 0 0 0 0 0 0 0 1 1 1 1 2 4 9 15 22 26 28 31 31 30 33 35 35 38 40 40 36 35 36 35 32 29 26 22 19 17 16 14 13 13 14
0 0 0 0 0 0 0 0 0 2 3 3 4 5 6 9 14 19 24 28 31 35 38 40 40 40 40 42 43 41 39 40 40 36 33 29 25 21 18 15 14 14 15 16
0 0 0 0 0 0 0 0 0 2 4 5 6 7 8 9 11 17 22 26 30 35 39 42 42 42 42 42 44 45 46 46 44 40 36 32 29 25 20 15 14 14 14 14
1 1 0 0 0 1 1 1 1 1 4 10 13 13 11 11 13 19 26 29 30 33 36 39 41 42 42 43 45 47 49 49 47 42 36 33 30 28 23 17 14 13 12 12
0 0 0 0 1 3 4 4 5 7 13 20 24 23 19 17 20 28 34 34 32 32 34 37 40 41 42 44 45 46 46 47 46 42 37 34 31 28 24 21 18 15 12 11
1 2 3 2 3 7 11 12 14 19 26 31 32 30 26 24 27 34 38 38 35 34 37 41 44 44 42 42 44 46 44 42 42 40 38 36 32 26 23 23 21 18 14 12
5 7 8 9 11 15 19 20 21 25 31 33 31 29 28 29 30 33 37 39 39 39 43 48 50 48 43 40 42 44 40 37 36 37 36 34 29 24 22 22 22 20 17 14
10 11 15 18 21 24 25 24 22 23 27 29 27 26 27 30 31 34 37 40 43 44 45 49 50 49 44 40 40 40 37 34 32 32 32 29 24 20 20 21 21 20 18 16
14 15 19 23 25 27 29 26 22 22 25 28 28 26 27 30 33 36 39 40 40 41 42 43 45 46 45 43 39 36 35 33 30 27 27 25 21 18 18 19 19 18 16 15
16 18 21 24 25 27 28 25 23 24 27 29 30 27 27 30 33 36 39 39 36 35 37 39 41 44 45 43 39 35 35 32 29 26 24 23 20 18 18 18 17 15 13 10

GEFSCGP_con_probscp_228.txt.gz
Probability
0 0 0 0 0 0 0 0 0 0 0 1 2 3 6 7 7 9 11 12 12 14 18 17 11 9 15 24 28 26 22 20 18 14 11 10 9 9 9 9 8 8 8 9
0 0 0 0 0 0 0 0 0 0 0 0 1 3 3 3 5 8 11 12 13 15 20 20 15 11 17 26 30 27 24 23 22 18 12 9 8 8 10 11 11 10 9 9
0 0 0 0 0 0 0 0 0 0 0 0 1 2 1 1 2 6 9 11 12 14 19 22 20 16 18 25 29 28 27 27 25 21 16 12 10 10 12 14 15 14 11 9
0 0 0 0 0 0 0 0 0 0 0 0 0 1 2 1 1 2 6 9 10 12 17 22 24 21 20 22 27 30 30 29 26 23 22 20 17 15 14 16 18 17 14 13
0 0 0 0 0 0 0 0 0 0 0 0 0 1 3 2 1 1 3 6 9 12 16 21 25 24 19 19 26 33 35 34 30 27 26 26 23 18 16 17 19 19 19 17
0 0 0 0 0 0 0 0 1 1 0 0 0 1 2 1 1 1 2 4 8 13 16 20 23 24 19 19 27 36 40 39 36 32 29 27 25 21 18 18 19 20 21 21
0 0 0 0 0 0 0 0 1 1 0 0 0 1 2 1 0 1 2 4 8 14 18 20 24 24 21 22 29 37 42 44 41 36 31 27 24 22 20 19 19 19 19 19
0 0 0 0 0 0 0 0 1 1 0 0 1 2 2 1 1 2 3 5 10 15 20 24 26 25 23 23 29 38 45 46 43 38 33 27 23 21 20 19 18 17 16 14
0 0 0 0 0 0 0 1 2 2 1 0 1 2 1 0 1 3 3 5 10 16 21 26 28 27 24 23 29 38 45 45 41 38 34 29 25 21 20 19 18 16 14 12
0 0 0 0 0 0 0 1 3 3 2 1 1 1 1 0 2 3 5 7 12 16 20 26 31 31 26 25 30 37 41 41 38 35 31 29 26 22 20 19 18 16 15 14
0 0 0 0 0 0 0 1 3 3 2 1 0 0 0 0 1 4 8 12 16 17 18 25 31 32 30 28 32 37 38 36 34 32 29 28 27 25 22 20 19 19 18 17
0 0 0 0 0 0 0 1 2 3 3 2 1 0 0 1 3 6 12 19 21 19 17 21 28 31 31 31 34 37 37 34 33 32 32 31 30 29 26 23 23 25 25 23
0 0 0 0 0 0 0 0 1 2 3 2 1 1 3 6 7 9 15 23 27 25 21 22 27 31 34 37 41 41 38 35 35 37 38 36 34 33 30 27 28 29 28 26
0 0 0 0 0 0 0 0 1 2 2 1 1 3 7 11 12 11 16 25 31 33 32 33 35 38 44 50 52 49 43 39 40 44 46 43 40 38 34 32 30 28 26 24
0 0 0 0 0 0 0 0 1 1 1 1 2 5 11 15 16 16 19 26 33 37 42 46 48 50 56 61 61 57 51 48 49 51 53 51 47 43 39 34 29 25 23 21
0 0 0 0 0 0 0 0 1 1 1 1 3 7 13 19 22 23 24 28 33 39 46 52 57 61 63 64 64 61 57 56 58 58 57 55 51 45 40 34 27 24 23 23
1 1 1 0 0 0 0 1 2 3 4 4 6 10 15 20 26 29 31 32 36 41 47 53 59 64 65 63 63 62 59 58 61 60 57 55 52 46 39 33 28 26 26 26
3 4 2 0 0 0 1 2 4 6 8 10 12 14 17 21 28 35 39 40 42 47 53 56 59 62 63 61 60 60 57 57 60 59 57 55 53 47 39 33 30 29 28 29
4 6 4 1 0 0 1 4 6 8 10 14 18 20 21 24 32 41 46 47 50 54 58 60 60 59 61 60 58 56 55 56 59 59 57 55 51 47 41 35 32 32 31 30
3 5 4 2 1 1 3 5 7 8 12 19 25 29 31 32 37 45 50 52 55 57 58 59 61 62 63 62 59 55 53 53 55 56 56 53 50 47 43 39 36 36 35 33
1 2 2 2 2 2 4 6 10 15 21 29 34 37 41 43 45 49 53 55 58 59 59 61 65 66 66 65 62 57 53 51 51 52 53 53 50 47 44 41 39 38 37 34
3 3 4 5 7 10 12 14 21 31 37 40 40 41 46 50 50 51 55 56 59 60 61 65 68 68 67 66 64 60 57 53 50 50 52 51 48 45 43 41 40 38 36 34
8 9 11 12 16 20 22 26 32 39 42 43 42 42 46 48 48 50 54 57 59 60 60 63 66 66 64 62 62 61 60 56 51 50 51 48 44 43 43 41 38 36 33 31
11 15 19 22 24 26 28 31 33 35 37 40 42 44 45 46 46 49 53 56 59 61 60 59 60 61 60 59 59 60 58 53 49 47 48 45 40 39 41 39 36 33 29 27
17 20 26 31 31 31 32 32 32 32 33 37 42 44 44 45 46 49 52 54 59 63 63 60 58 57 57 57 57 56 54 50 46 44 45 43 38 35 36 34 29 26 23 21
20 24 31 36 37 37 35 34 34 34 34 37 42 44 45 45 45 47 49 52 57 63 65 63 60 57 55 55 55 54 52 49 44 42 43 42 37 34 32 28 21 17 15 14

GEFSCGP_con_probscp_234.txt.gz
Probability
0 0 0 0 0 0 0 0 0 0 0 0 0 1 2 4 5 6 7 8 7 8 11 14 14 10 5 4 5 4 3 4 5 6 6 5 4 6 6 6 6 5 4 3
0 0 0 0 0 0 0 0 0 0 0 0 0 0 2 3 4 6 7 8 7 9 12 15 15 11 7 6 6 6 5 5 5 6 5 4 4 4 5 5 5 4 3 2
0 0 0 0 0 0 0 0 0 0 0 0 0 0 1 2 4 5 7 7 7 10 13 14 14 14 11 9 9 9 9 9 7 5 4 4 3 3 4 5 5 3 2 1
0 0 0 0 0 0 0 0 0 0 0 0 1 1 1 1 3 5 6 6 7 10 11 11 12 15 14 12 12 12 12 11 8 5 5 5 5 5 5 5 5 4 3 3
0 0 0 0 0 0 0 0 0 0 0 0 1 1 1 0 2 4 6 6 7 9 10 9 10 12 13 14 15 16 16 14 10 7 7 8 8 7 6 5 4 4 5 5
0 0 0 0 0 0 1 0 0 1 0 0 0 0 0 0 1 3 4 6 8 11 12 11 10 11 11 15 19 20 19 17 13 11 11 12 12 11 8 6 5 6 5 5
0 0 0 0 0 0 0 0 0 0 0 0 0 0 0 1 2 3 4 6 10 14 14 13 13 13 13 18 23 23 21 19 17 16 15 14 14 13 9 7 6 6 5 4
0 0 0 0 0 0 0 0 0 0 0 0 0 0 0 1 3 5 6 8 11 15 16 15 14 14 17 22 25 25 24 22 20 18 15 14 14 13 9 6 5 5 5 5
0 0 0 0 0 0 0 0 0 0 0 0 0 0 0 2 5 7 9 11 13 14 15 15 12 13 18 25 26 24 24 24 21 17 13 12 13 12 9 6 4 3 4 4
0 0 0 0 0 0 0 0 0 0 0 0 0 0 0 2 5 8 11 13 15 16 16 14 11 11 17 25 26 23 22 22 20 15 12 11 12 11 8 5 4 4 4 3
0 0 0 0 0 0 0 0 0 0 0 0 0 0 0 1 3 8 12 16 17 18 19 16 12 10 15 23 26 23 21 20 18 14 12 12 11 8 6 4 4 4 4 3
0 0 0 0 0 0 0 0 0 0 0 0 0 0 0 1 3 7 14 18 17 18 22 20 15 12 15 21 24 24 22 20 18 16 15 14 11 8 5 4 4 4 5 5
0 0 0 0 0 0 0 0 0 0 0 0 1 1 2 3 5 8 14 17 18 20 23 22 19 17 19 21 24 26 25 22 20 20 19 16 13 9 6 4 5 6 6 6
0 0 0 0 0 0 0 0 0 0 0 1 3 3 4 5 7 9 13 17 21 24 25 23 21 21 22 24 26 29 31 28 25 24 22 19 16 12 9 7 8 8 8 8
0 0 0 0 0 1 1 1 1 1 2 3 5 5 5 7 8 11 15 19 23 27 28 24 23 23 25 27 29 33 37 35 31 28 26 23 20 16 13 12 12 11 11 10
0 0 0 0 1 2 2 2 3 3 4 4 6 7 9 12 14 14 17 21 25 28 29 28 27 27 29 31 31 35 41 40 35 32 29 26 23 20 17 16 15 14 13 12
0 0 0 0 1 2 3 3 4 6 7 8 11 14 18 21 22 20 19 22 26 27 29 30 32 32 33 33 33 36 41 41 38 34 30 27 25 23 20 17 15 14 12 12
0 0 0 0 0 1 1 3 5 8 12 16 20 22 25 28 28 25 23 24 25 26 29 32 33 34 34 34 34 36 40 43 42 37 32 29 29 29 25 18 14 11 11 10
0 0 0 0 0 0 1 3 7 11 17 22 26 28 28 29 30 27 25 25 25 26 30 33 33 32 33 33 34 38 41 44 44 40 34 32 33 34 30 22 15 12 11 8
0 0 0 0 0 0 2 5 8 14 20 24 27 29 30 29 27 25 25 26 26 27 30 33 33 32 31 32 35 40 43 44 43 40 38 37 37 37 33 26 19 16 13 11
0 0 0 0 0 1 3 7 11 15 21 23 23 26 29 28 24 23 25 26 26 27 29 31 32 30 30 32 35 39 42 42 41 39 39 39 39 37 33 29 24 19 15 14
1 1 1 0 1 3 5 9 13 17 20 21 19 22 27 29 27 27 27 26 25 26 27 27 28 28 30 32 35 37 39 39 39 37 36 35 36 36 34 31 28 22 18 16
0 1 3 3 4 6 8 10 14 19 21 20 19 22 27 31 31 30 29 26 25 25 24 23 24 26 30 33 34 35 37 37 37 36 34 30 30 32 33 32 30 25 20 17
2 4 7 9 9 10 12 14 15 19 22 22 22 25 28 32 33 32 30 28 26 25 23 21 21 24 29 32 32 32 34 35 35 35 32 28 26 28 31 31 29 26 21 17
7 8 9 10 10 12 14 15 16 17 19 21 23 26 30 33 35 34 33 32 30 28 26 23 21 23 26 29 29 28 29 30 31 31 29 26 24 25 27 26 24 21 16 13
10 11 10 8 9 12 14 15 15 16 18 19 22 26 30 34 36 37 36 36 34 31 29 26 23 22 24 27 27 24 25 28 30 29 26 24 23 22 23 23 19 14 11 9

GEFSCGP_con_probscp_240.txt.gz
Probability
0 0 0 0 0 0 0 0 0 0 0 0 1 1 1 0 1 2 3 3 2 1 1 1 2 3 2 0 0 0 0 0 0 0 0 0 0 0 0 0 0 0 0 0
0 0 0 0 0 0 0 0 0 0 0 0 0 0 0 0 1 2 2 2 3 2 2 4 5 4 2 0 0 0 0 0 0 0 0 0 0 0 0 0 0 0 0 0
0 0 0 0 0 0 0 0 0 0 0 0 0 0 0 0 1 1 0 2 3 3 4 6 7 4 1 0 0 0 0 0 0 0 0 1 1 1 0 0 0 0 0 0
0 0 0 0 0 0 0 0 0 0 0 0 0 0 0 0 0 0 0 1 2 3 5 7 7 4 1 0 0 0 0 0 0 0 1 2 2 1 0 0 0 0 0 0
0 0 0 0 0 0 0 0 0 0 0 0 0 0 0 0 0 0 0 0 1 3 6 8 7 4 1 0 1 2 2 2 2 1 1 3 3 2 0 0 0 0 0 0
0 0 0 0 0 0 0 0 0 0 0 0 0 0 0 0 0 0 0 0 0 3 7 9 7 4 1 2 3 5 5 4 4 3 2 3 3 2 1 1 1 1 0 0
0 0 0 0 0 0 0 0 0 0 0 0 0 0 0 0 0 0 0 0 1 3 6 8 7 4 3 5 8 8 7 6 6 5 4 4 4 3 3 2 2 2 1 1
0 0 0 0 0 0 0 0 0 0 0 0 0 0 0 0 1 1 1 1 1 2 5 7 5 4 4 7 10 11 9 7 7 7 5 5 6 4 3 3 3 3 3 2
0 0 0 0 0 0 0 0 0 0 0 0 0 0 0 0 1 2 2 2 1 1 3 4 3 3 5 7 9 10 10 10 9 8 5 5 6 4 3 3 3 3 3 3
0 0 0 0 0 0 0 0 0 0 0 0 0 0 0 0 0 1 2 3 3 3 3 3 1 1 4 6 7 8 9 9 8 7 6 5 5 4 3 3 3 3 2 1
0 0 0 0 0 0 0 0 0 0 0 0 0 0 0 0 0 0 2 4 5 6 5 4 1 1 2 4 6 7 7 7 6 6 6 6 5 4 3 3 3 2 1 0
0 0 0 0 0 0 0 0 0 0 0 0 0 0 0 0 0 1 4 6 7 8 7 6 4 2 2 3 5 6 6 6 5 5 7 7 5 3 3 2 2 1 1 0
0 0 0 0 0 0 0 0 0 0 0 0 0 0 0 0 1 4 8 9 9 10 11 10 9 6 3 3 5 5 6 7 6 6 7 7 5 4 2 2 2 3 3 2
0 0 0 0 0 0 0 0 0 0 0 0 0 0 0 1 3 7 9 9 9 12 14 14 12 9 6 5 6 7 8 9 10 10 9 9 7 5 2 2 4 5 5 4
0 0 0 0 0 0 0 0 0 0 0 0 0 0 1 1 4 7 9 9 10 12 13 12 11 10 8 7 9 12 14 16 17 15 13 11 10 7 4 4 5 6 6 5
0 0 0 0 0 0 0 1 2 1 1 1 1 1 3 3 4 6 9 11 13 13 11 8 9 10 8 8 13 20 24 25 23 20 16 14 12 9 7 7 7 7 7 7
0 0 0 0 0 0 1 2 4 4 4 4 4 4 5 5 4 6 9 12 16 16 13 10 11 10 9 10 15 25 31 31 27 22 19 17 15 13 11 9 9 7 6 6
0 0 0 0 0 0 1 3 6 7 6 5 6 8 9 7 6 7 8 11 15 17 15 14 13 12 11 11 14 22 30 32 28 24 21 19 18 17 15 13 11 7 5 4
0 0 0 0 0 0 1 4 7 8 8 8 9 12 12 10 9 8 9 10 13 16 15 15 16 14 13 13 14 19 25 28 28 27 24 22 22 22 19 18 15 10 7 6
0 0 0 0 0 0 1 4 7 8 9 10 12 13 13 13 11 9 8 9 12 14 15 16 18 16 13 14 16 20 23 26 28 28 27 26 26 25 23 21 18 14 11 10
0 0 0 0 0 0 2 5 6 6 7 9 11 11 11 12 11 8 8 10 12 13 13 15 18 15 12 12 15 19 23 25 28 29 27 26 26 26 25 23 21 17 14 12
0 0 0 0 0 1 4 6 4 3 4 7 9 10 10 11 10 8 9 11 12 11 11 12 14 13 10 9 12 18 22 24 28 29 27 25 26 26 25 23 22 19 14 12
1 0 1 1 1 2 4 4 3 3 5 7 10 12 11 10 11 11 12 12 11 11 10 11 14 14 11 9 11 17 21 24 27 28 27 27 28 28 25 22 22 18 13 12
2 2 3 4 4 5 5 5 4 6 7 9 12 13 11 10 10 12 13 12 11 11 12 14 16 15 12 9 10 13 19 24 26 27 25 25 27 26 23 21 21 19 15 14
5 4 4 5 4 5 5 5 6 8 10 11 12 12 11 10 10 11 13 13 13 13 14 17 17 14 11 9 9 12 16 22 24 24 23 21 20 20 18 18 18 16 13 12
6 6 5 4 3 3 4 4 6 9 11 12 13 12 11 10 11 12 13 14 14 13 15 16 16 12 9 8 10 13 17 20 23 23 22 19 17 16 15 16 14 11 7 6

GEFSCGP_con_probscp_246.txt.gz
Probability
0 0 0 0 0 0 0 0 0 0 0 0 0 1 2 3 2 1 1 1 1 0 0 0 0 0 0 1 3 5 6 7 8 6 4 3 2 1 0 0 1 2 3 3
0 0 0 0 0 0 0 0 0 0 0 0 0 1 3 3 3 2 1 1 2 1 1 1 1 2 2 3 4 6 8 11 11 9 6 5 4 2 1 1 3 3 4 4
0 0 0 0 0 0 0 0 0 0 0 0 0 2 4 4 3 2 1 1 2 2 2 3 4 5 5 5 5 7 11 15 15 13 11 9 7 5 4 4 5 6 5 5
0 0 0 0 0 0 0 0 0 0 0 0 0 1 2 3 2 1 0 0 1 3 3 3 5 6 6 5 5 8 14 18 18 16 14 12 9 7 6 6 6 6 5 5
0 0 0 0 0 0 0 0 0 0 0 0 0 0 1 1 2 1 0 0 1 2 3 3 5 7 6 4 5 10 16 20 20 19 17 15 12 9 7 7 7 6 4 4
0 0 0 0 0 0 0 0 0 0 0 0 0 0 0 1 2 1 1 0 0 1 3 4 5 7 6 5 7 12 17 19 20 19 17 17 14 11 10 9 8 6 4 4
0 0 0 0 0 0 0 0 0 0 0 0 0 0 1 2 3 3 2 1 1 1 3 5 6 6 6 6 8 13 16 17 18 18 17 18 17 14 12 11 9 7 5 5
0 0 0 0 0 0 0 0 0 0 0 0 0 1 2 3 4 3 3 3 3 2 4 6 7 6 6 5 7 11 14 14 15 16 17 18 17 14 13 12 10 8 6 6
0 0 0 0 0 0 0 0 0 0 0 0 0 1 2 4 5 4 4 4 4 4 5 6 7 7 7 6 6 9 12 13 13 14 15 15 15 13 11 10 9 8 7 6
0 0 0 0 0 0 0 0 0 0 0 0 0 0 2 3 5 5 5 5 6 6 7 9 10 11 12 9 8 10 12 13 13 13 12 12 12 11 10 9 8 7 6 5
0 0 0 0 0 0 0 0 0 0 0 0 0 0 1 2 4 5 5 6 8 10 12 14 15 17 17 14 11 11 12 13 13 12 11 10 9 10 10 9 8 7 5 4
0 0 0 0 0 0 0 0 0 0 0 0 0 0 1 1 2 3 4 6 11 15 17 18 18 19 20 19 16 13 12 13 13 13 12 11 10 10 12 13 12 10 7 6
0 0 0 0 0 0 0 0 0 0 0 0 0 0 0 0 1 2 2 7 14 21 23 22 21 21 22 22 20 16 14 14 15 15 13 14 14 15 16 17 16 13 10 8
0 0 0 0 0 0 0 0 0 0 0 0 0 0 1 2 3 3 4 9 16 24 30 28 26 25 25 24 24 21 18 17 17 17 16 17 18 20 20 19 17 15 13 11
0 0 0 0 0 0 0 0 0 0 0 0 0 1 3 6 7 6 8 12 19 27 33 34 32 29 26 26 27 25 23 21 21 21 22 23 23 24 24 22 20 19 18 16
0 0 0 0 0 0 0 0 0 1 1 1 1 3 8 11 11 10 12 17 22 27 31 34 33 29 26 26 29 29 28 27 27 27 29 30 30 30 30 28 26 26 27 27
1 1 0 0 0 0 1 1 2 3 4 5 5 7 11 14 15 15 16 20 25 27 30 32 30 28 28 30 32 34 34 34 34 35 36 38 37 35 34 33 33 33 35 37
0 0 0 0 0 1 3 3 4 5 8 9 10 11 13 15 16 18 20 23 28 32 34 34 30 30 35 37 36 36 36 37 38 39 40 42 41 39 38 38 39 39 40 40
0 0 0 0 0 1 3 5 5 7 9 11 13 14 16 17 18 22 27 30 33 36 38 37 35 35 40 42 40 39 37 36 37 38 41 44 43 42 43 43 43 42 39 37
1 1 1 0 0 1 3 5 5 6 8 10 13 18 21 20 21 27 32 34 35 36 37 38 38 39 40 41 41 41 40 36 35 38 43 46 46 45 45 46 46 43 39 35
1 1 1 0 0 1 3 4 4 6 9 11 15 21 23 23 25 30 34 33 33 33 34 36 39 42 41 38 38 39 40 37 36 41 47 48 48 47 46 46 46 43 40 37
2 2 2 1 1 2 5 6 7 10 13 16 18 21 22 25 30 33 34 32 30 29 29 32 38 42 41 37 36 37 38 38 39 43 46 47 46 46 45 45 45 43 40 38
7 6 5 6 4 4 8 12 14 15 16 19 19 19 21 27 32 34 33 30 28 25 24 27 34 38 36 33 34 35 38 41 42 42 42 41 41 41 42 44 44 43 40 39
10 10 10 11 9 8 11 16 17 16 15 16 17 18 21 25 29 32 32 28 24 21 19 23 28 30 29 28 28 31 35 39 41 39 37 35 34 36 39 40 39 39 38 37
13 12 13 15 14 12 12 15 16 15 14 13 14 17 19 21 25 28 29 25 22 19 18 21 25 26 26 24 24 27 30 32 33 32 30 29 28 31 35 34 30 28 27 26
15 14 14 17 18 14 13 14 15 15 14 12 13 15 17 19 22 24 24 23 21 19 19 21 24 25 25 23 23 26 26 26 26 25 25 24 25 29 32 30 23 19 16 14

GEFSCGP_con_probscp_252.txt.gz
Probability
0 0 0 0 0 0 0 0 0 0 0 1 2 3 3 1 0 1 3 5 7 9 10 10 10 11 16 21 22 21 21 22 20 18 18 20 19 16 13 13 12 9 6 4
0 0 0 0 0 0 0 0 0 0 0 0 1 3 3 1 0 1 2 5 8 10 13 15 15 15 20 26 26 23 22 22 20 18 18 19 19 16 14 14 13 11 8 8
0 0 0 0 0 0 0 0 0 0 0 0 1 2 2 2 1 1 2 6 9 11 15 19 20 20 25 31 29 26 27 25 20 17 16 18 19 18 18 18 16 14 12 11
0 0 0 0 0 0 0 0 0 0 0 0 0 1 2 2 2 1 2 5 9 11 14 18 22 24 27 29 30 33 35 31 24 18 15 16 17 18 18 18 17 15 13 12
0 0 0 0 0 0 0 0 0 0 0 0 0 0 1 3 3 1 1 4 7 11 14 17 23 27 26 26 30 39 44 39 29 21 16 15 15 15 15 14 13 12 12 12
0 0 0 0 0 0 0 0 0 0 0 0 0 0 2 4 4 2 1 2 5 10 14 17 23 29 29 27 31 41 49 44 33 24 19 17 15 14 13 11 11 11 12 13
0 0 0 0 0 0 0 0 0 0 0 0 0 1 3 6 4 2 1 1 4 9 15 18 23 31 34 32 32 41 49 45 32 25 23 21 18 16 14 13 11 11 13 15
0 0 0 0 0 0 0 0 0 0 0 0 0 1 4 6 5 2 1 1 4 10 16 20 24 31 35 34 34 42 47 41 29 24 25 24 21 18 16 16 14 13 14 16
0 0 0 0 0 0 0 0 0 1 0 0 0 2 3 5 4 3 1 2 6 12 17 21 24 29 33 35 38 44 46 39 29 25 26 25 23 21 20 20 19 17 15 14
0 0 0 0 0 0 0 0 0 0 0 0 0 2 4 5 4 3 4 6 9 13 17 20 24 28 33 36 40 45 46 40 32 29 26 25 24 24 24 23 22 21 18 15
0 0 0 0 0 0 0 0 0 0 0 0 0 1 3 5 5 5 8 10 12 14 17 20 23 27 32 37 41 45 45 41 34 31 28 25 24 24 24 23 22 22 21 18
0 0 0 0 0 0 0 0 0 0 0 0 0 1 3 6 7 10 13 15 16 18 20 22 25 28 31 34 38 41 43 40 36 34 32 27 23 22 21 21 22 23 23 21
0 0 0 0 0 0 0 0 0 0 0 1 2 4 7 9 11 15 16 17 19 22 24 25 29 33 36 38 40 41 41 39 39 40 38 32 26 23 23 24 25 27 26 25
0 0 0 0 0 0 0 0 0 0 0 1 4 8 12 16 19 22 22 21 22 24 27 29 34 38 42 45 46 45 43 42 42 45 46 41 35 32 32 33 34 33 31 29
0 0 0 0 0 0 0 0 0 0 0 1 5 10 16 21 26 29 31 29 27 25 27 32 36 41 46 51 52 49 46 45 47 51 52 51 47 44 44 44 43 41 36 34
0 0 0 0 0 0 0 0 0 0 0 2 7 15 22 25 28 34 37 35 31 28 30 35 40 44 49 55 56 53 50 49 52 56 58 57 56 54 51 49 48 46 43 41
0 0 0 0 0 0 0 0 0 1 2 6 12 20 25 28 31 36 39 38 34 32 36 42 46 48 50 55 58 56 54 54 55 57 57 58 58 56 53 50 48 48 47 46
2 3 2 0 0 0 0 0 1 3 7 12 17 21 24 29 35 40 43 43 40 39 44 50 49 46 46 49 52 54 54 54 53 52 52 53 54 53 52 49 47 47 47 47
4 5 3 0 0 0 0 1 2 6 11 15 19 21 22 26 35 44 49 50 48 46 49 51 48 44 42 43 46 49 50 50 51 50 49 49 50 51 51 49 46 46 46 46
3 4 3 0 0 0 1 2 4 9 13 16 21 23 23 25 36 48 54 55 54 52 50 49 49 48 47 45 46 49 50 50 53 52 50 49 50 50 50 48 47 46 46 46
1 2 2 0 0 1 3 4 8 17 23 23 24 26 27 33 42 50 53 54 55 53 50 49 51 53 53 51 51 53 53 54 56 56 52 48 47 47 46 46 47 48 48 48
1 2 3 3 5 9 11 13 20 32 35 32 30 29 32 38 45 49 51 50 49 49 50 50 52 55 55 54 54 55 55 56 57 56 51 45 42 41 41 44 47 48 49 50
2 5 9 11 15 19 20 24 32 37 37 35 32 31 32 37 42 46 46 44 43 45 48 51 54 55 53 52 52 53 55 55 53 50 48 43 37 36 38 41 43 45 47 48
7 11 18 22 23 23 24 27 31 32 31 31 30 29 30 33 37 39 40 39 40 43 47 51 54 54 51 48 48 50 53 52 46 44 43 39 34 32 35 37 38 39 42 43
12 16 23 26 25 23 23 23 24 25 26 26 27 26 27 29 32 33 32 34 37 42 47 49 50 49 48 46 46 48 50 48 43 39 36 32 30 30 31 32 30 31 32 33
15 19 23 24 23 23 23 22 20 21 22 24 25 25 25 25 27 28 28 29 34 40 45 47 47 45 45 45 44 47 48 46 44 38 31 27 27 28 29 28 25 23 24 24

GEFSCGP_con_probscp_258.txt.gz
Probability
0 0 0 0 0 0 0 0 0 0 0 0 0 1 1 0 1 3 5 7 9 10 10 9 11 14 16 17 16 15 14 13 13 11 7 4 3 1 2 3 3 1 1 1
0 0 0 0 0 0 0 0 0 0 0 0 0 1 1 0 1 4 6 8 11 12 12 11 14 17 19 18 17 16 15 14 14 11 7 5 4 2 2 4 3 2 2 2
0 0 0 0 0 0 0 0 0 0 0 0 0 1 1 0 1 4 7 8 10 12 12 13 17 21 22 19 18 17 16 14 12 9 7 5 4 3 2 3 3 2 3 4
0 0 0 0 0 0 0 0 1 0 0 0 0 0 0 0 1 4 6 7 9 10 10 12 16 20 20 20 19 17 15 12 9 7 6 4 3 3 3 3 2 2 4 5
0 0 0 0 0 0 0 0 0 0 0 0 0 0 0 0 2 4 6 8 9 10 9 11 15 19 20 20 20 18 14 11 9 7 5 4 3 3 5 5 4 2 3 5
0 0 0 0 0 0 0 0 0 0 0 0 0 0 0 0 2 4 6 9 11 12 11 12 15 20 22 23 23 20 16 13 10 7 5 4 4 4 5 6 5 4 5 6
0 0 0 0 0 0 0 0 0 0 0 0 0 0 0 1 2 4 6 9 12 13 12 12 15 20 23 25 25 22 17 13 11 8 6 5 5 6 6 6 5 6 6 6
0 0 0 0 0 0 0 0 0 0 0 0 0 0 0 1 4 5 7 9 12 13 11 10 13 17 20 23 25 22 17 13 11 9 8 7 7 8 8 7 6 6 7 7
0 0 0 0 0 0 0 0 0 0 0 0 0 0 0 2 4 6 7 10 13 12 10 9 12 15 17 20 23 22 18 15 14 13 11 10 10 9 9 8 7 7 7 6
0 0 0 0 0 0 0 0 0 0 0 0 0 0 0 1 4 7 9 12 14 12 9 10 13 15 16 19 21 21 19 17 16 15 15 13 12 11 10 9 7 6 5 4
0 0 0 0 0 0 0 0 0 0 0 0 0 1 1 3 5 8 10 12 13 13 11 12 14 16 17 19 20 20 19 17 15 15 15 14 13 12 11 10 7 4 2 1
0 0 0 0 0 0 0 0 0 0 0 0 1 2 3 4 7 9 11 12 12 13 14 14 14 15 18 20 20 20 20 18 15 14 13 12 11 10 10 9 6 3 1 1
0 0 0 0 0 0 0 0 0 0 0 1 2 4 4 6 8 10 9 9 10 11 14 14 13 13 16 19 21 22 22 20 17 14 11 9 8 8 8 8 8 6 5 4
0 0 0 0 0 0 0 0 0 0 0 1 4 7 7 9 11 10 8 7 9 12 15 16 15 14 15 18 21 24 24 22 19 16 13 10 8 8 8 9 11 11 9 9
0 0 0 0 0 0 0 0 0 0 1 4 7 9 10 12 13 12 11 11 12 16 20 22 22 20 17 18 23 25 26 24 21 19 16 14 12 11 9 10 13 13 11 10
0 0 0 0 0 0 0 0 0 1 4 7 9 9 11 13 14 14 14 15 17 19 23 25 26 23 21 21 24 24 23 23 23 21 20 18 17 15 13 14 14 14 12 11
0 0 0 0 0 0 0 0 1 2 5 8 8 9 13 16 16 16 16 17 18 20 22 25 26 23 20 20 22 20 19 20 20 19 19 20 19 18 17 18 17 15 15 15
0 0 0 0 0 0 0 1 3 5 7 9 10 13 18 19 19 19 19 20 21 21 22 25 26 22 18 17 17 17 16 17 17 16 16 18 19 19 18 19 19 18 19 20
0 0 0 0 0 0 0 1 4 8 10 12 15 20 22 22 21 22 22 25 26 25 25 26 27 25 22 19 17 17 17 16 15 14 15 17 20 20 20 21 22 23 23 24
0 0 0 0 1 1 2 3 6 9 11 14 19 22 23 22 21 21 23 27 29 29 28 28 30 30 29 25 22 20 18 16 15 15 17 18 19 20 21 23 25 25 25 25
1 1 0 1 2 2 4 8 10 10 12 15 19 22 23 23 22 21 23 25 28 31 32 33 33 34 32 28 25 23 20 18 18 18 17 16 16 18 19 22 24 24 23 24
2 1 1 1 3 3 6 11 14 14 15 18 22 25 28 28 26 24 24 25 28 32 35 35 34 35 32 27 25 25 24 22 21 20 17 14 14 17 19 22 23 23 22 22
1 1 2 4 6 7 9 13 16 17 18 21 25 29 31 31 28 26 26 28 30 33 35 34 33 34 32 27 25 26 27 25 23 21 17 14 14 16 18 21 23 22 22 21
2 3 6 10 12 13 14 16 18 19 20 23 26 29 28 27 25 24 26 29 31 31 32 30 29 31 31 28 26 26 25 23 23 21 18 17 16 16 16 17 19 20 19 19
4 5 8 12 13 13 15 17 18 18 19 22 25 25 23 21 20 21 24 27 28 27 26 26 26 27 28 28 29 28 24 21 22 21 19 19 18 16 14 13 13 15 16 16
5 5 7 9 10 11 12 15 17 17 18 21 24 23 19 18 19 19 21 23 24 24 22 22 24 26 27 28 30 30 26 22 21 21 20 20 19 15 13 11 10 11 13 14